2016 Cux-Wetter.de -Die Nutzung der Wetterdaten nur mit ausdrcklicher Genehmigung
Wetterdaten: Samstag, 16.02.2019
Datum Zeit Temp. A. Feuchte A. Luftdruck Regen Wind Richtung Richtung Sonnenschein Solar Taupunkt Windchill Windben
16.02.2019 00:00 5,3 C 76 % 1024,2 hPa 0,0 l/m 4,1 km/h (1 Bft) S-SO 162 0 min 0 W/m 1,4 C 5,3 C 8,0 km/h (2 Bft)
16.02.2019 00:03 5,3 C 76 % 1024,2 hPa 0,0 l/m 4,3 km/h (1 Bft) S-SO 162 0 min 0 W/m 1,4 C 5,3 C 8,0 km/h (2 Bft)
16.02.2019 00:06 5,3 C 76 % 1024,2 hPa 0,0 l/m 4,7 km/h (1 Bft) S-SO 162 0 min 0 W/m 1,4 C 5,3 C 8,0 km/h (2 Bft)
16.02.2019 00:09 5,3 C 77 % 1024,2 hPa 0,0 l/m 5,1 km/h (1 Bft) S-SO 162 0 min 0 W/m 1,6 C 5,3 C 8,0 km/h (2 Bft)
16.02.2019 00:12 5,2 C 76 % 1024,2 hPa 0,0 l/m 4,1 km/h (1 Bft) S-SO 162 0 min 0 W/m 1,3 C 5,2 C 8,0 km/h (2 Bft)
16.02.2019 00:15 5,2 C 77 % 1024,2 hPa 0,0 l/m 5,0 km/h (1 Bft) S-SO 162 0 min 0 W/m 1,5 C 5,2 C 8,0 km/h (2 Bft)
16.02.2019 00:18 5,2 C 77 % 1024,2 hPa 0,0 l/m 4,7 km/h (1 Bft) S-SO 162 0 min 0 W/m 1,5 C 5,2 C 8,0 km/h (2 Bft)
16.02.2019 00:21 5,1 C 77 % 1024,1 hPa 0,0 l/m 4,4 km/h (1 Bft) S-SO 162 0 min 0 W/m 1,4 C 5,1 C 8,0 km/h (2 Bft)
16.02.2019 00:24 5,1 C 77 % 1024,0 hPa 0,0 l/m 4,4 km/h (1 Bft) S-SO 162 0 min 0 W/m 1,4 C 5,1 C 8,0 km/h (2 Bft)
16.02.2019 00:27 5,1 C 77 % 1024,0 hPa 0,0 l/m 4,8 km/h (1 Bft) S-SO 162 0 min 0 W/m 1,4 C 5,1 C 8,0 km/h (2 Bft)
16.02.2019 00:30 5,0 C 77 % 1023,9 hPa 0,0 l/m 5,4 km/h (2 Bft) S-SO 162 0 min 0 W/m 1,3 C 5,0 C 9,7 km/h (2 Bft)
16.02.2019 00:33 4,9 C 77 % 1024,0 hPa 0,0 l/m 4,9 km/h (1 Bft) S-SO 162 0 min 0 W/m 1,2 C 4,9 C 8,0 km/h (2 Bft)
16.02.2019 00:36 4,9 C 77 % 1024,0 hPa 0,0 l/m 4,8 km/h (1 Bft) S-SO 162 0 min 0 W/m 1,2 C 4,9 C 9,7 km/h (2 Bft)
16.02.2019 00:39 4,9 C 77 % 1024,0 hPa 0,0 l/m 5,0 km/h (1 Bft) S-SO 162 0 min 0 W/m 1,2 C 4,9 C 8,0 km/h (2 Bft)
16.02.2019 00:42 4,8 C 77 % 1024,0 hPa 0,0 l/m 4,8 km/h (1 Bft) S-SO 162 0 min 0 W/m 1,1 C 4,8 C 8,0 km/h (2 Bft)
16.02.2019 00:45 4,8 C 77 % 1023,9 hPa 0,0 l/m 5,4 km/h (2 Bft) S-SO 162 0 min 0 W/m 1,1 C 4,8 C 8,0 km/h (2 Bft)
16.02.2019 00:48 4,8 C 78 % 1024,0 hPa 0,0 l/m 3,7 km/h (1 Bft) S-SO 162 0 min 0 W/m 1,3 C 4,8 C 8,0 km/h (2 Bft)
16.02.2019 00:51 4,8 C 78 % 1024,0 hPa 0,0 l/m 3,9 km/h (1 Bft) S-SO 162 0 min 0 W/m 1,3 C 4,8 C 8,0 km/h (2 Bft)
16.02.2019 00:54 4,8 C 78 % 1024,0 hPa 0,0 l/m 3,9 km/h (1 Bft) S-SO 162 0 min 0 W/m 1,3 C 4,8 C 9,7 km/h (2 Bft)
16.02.2019 00:57 4,7 C 78 % 1024,0 hPa 0,0 l/m 3,8 km/h (1 Bft) S-SO 162 0 min 0 W/m 1,2 C 4,7 C 6,4 km/h (2 Bft)
16.02.2019 01:00 4,7 C 78 % 1023,9 hPa 0,0 l/m 2,6 km/h (1 Bft) S-SO 162 0 min 0 W/m 1,2 C 4,7 C 6,4 km/h (2 Bft)
16.02.2019 01:03 4,7 C 78 % 1024,0 hPa 0,0 l/m 2,8 km/h (1 Bft) S-SO 162 0 min 0 W/m 1,2 C 4,7 C 6,4 km/h (2 Bft)
16.02.2019 01:06 4,6 C 78 % 1024,0 hPa 0,0 l/m 2,3 km/h (1 Bft) S-SO 162 0 min 0 W/m 1,1 C 4,6 C 6,4 km/h (2 Bft)
16.02.2019 01:09 4,6 C 78 % 1023,9 hPa 0,0 l/m 2,4 km/h (1 Bft) S-SO 162 0 min 0 W/m 1,1 C 4,6 C 3,2 km/h (1 Bft)
16.02.2019 01:12 4,6 C 78 % 1024,0 hPa 0,0 l/m 3,6 km/h (1 Bft) S-SO 162 0 min 0 W/m 1,1 C 4,6 C 6,4 km/h (2 Bft)
16.02.2019 01:15 4,5 C 78 % 1024,0 hPa 0,0 l/m 4,9 km/h (1 Bft) S-SO 162 0 min 0 W/m 1,0 C 4,5 C 8,0 km/h (2 Bft)
16.02.2019 01:18 4,4 C 78 % 1023,9 hPa 0,0 l/m 6,6 km/h (2 Bft) S-SO 162 0 min 0 W/m 0,9 C 4,2 C 9,7 km/h (2 Bft)
16.02.2019 01:21 4,4 C 79 % 1023,8 hPa 0,0 l/m 5,6 km/h (2 Bft) S-SO 162 0 min 0 W/m 1,1 C 4,4 C 8,0 km/h (2 Bft)
16.02.2019 01:24 4,4 C 79 % 1023,8 hPa 0,0 l/m 3,8 km/h (1 Bft) S-SO 162 0 min 0 W/m 1,1 C 4,4 C 8,0 km/h (2 Bft)
16.02.2019 01:27 4,3 C 79 % 1023,8 hPa 0,0 l/m 4,1 km/h (1 Bft) S-SO 162 0 min 0 W/m 1,0 C 4,3 C 6,4 km/h (2 Bft)
16.02.2019 01:30 4,3 C 79 % 1023,7 hPa 0,0 l/m 4,6 km/h (1 Bft) S-SO 162 0 min 0 W/m 1,0 C 4,3 C 8,0 km/h (2 Bft)
16.02.2019 01:33 4,3 C 80 % 1023,7 hPa 0,0 l/m 4,7 km/h (1 Bft) S-SO 162 0 min 0 W/m 1,2 C 4,3 C 8,0 km/h (2 Bft)
16.02.2019 01:36 4,3 C 80 % 1023,7 hPa 0,0 l/m 4,2 km/h (1 Bft) S-SO 162 0 min 0 W/m 1,2 C 4,3 C 9,7 km/h (2 Bft)
16.02.2019 01:39 4,3 C 80 % 1023,7 hPa 0,0 l/m 4,1 km/h (1 Bft) S-SO 162 0 min 0 W/m 1,2 C 4,3 C 8,0 km/h (2 Bft)
16.02.2019 01:42 4,3 C 80 % 1023,6 hPa 0,0 l/m 3,9 km/h (1 Bft) S-SO 162 0 min 0 W/m 1,2 C 4,3 C 6,4 km/h (2 Bft)
16.02.2019 01:45 4,3 C 81 % 1023,6 hPa 0,0 l/m 4,1 km/h (1 Bft) S-SO 162 0 min 0 W/m 1,3 C 4,3 C 8,0 km/h (2 Bft)
16.02.2019 01:48 4,4 C 81 % 1023,6 hPa 0,0 l/m 3,4 km/h (1 Bft) S-SO 162 0 min 0 W/m 1,4 C 4,4 C 6,4 km/h (2 Bft)
16.02.2019 01:51 4,4 C 81 % 1023,6 hPa 0,0 l/m 5,1 km/h (1 Bft) S-SO 162 0 min 0 W/m 1,4 C 4,4 C 8,0 km/h (2 Bft)
16.02.2019 01:54 4,4 C 81 % 1023,6 hPa 0,0 l/m 6,3 km/h (2 Bft) S-SO 163 0 min 0 W/m 1,4 C 4,4 C 11,3 km/h (2 Bft)
16.02.2019 01:57 4,6 C 81 % 1023,5 hPa 0,0 l/m 5,3 km/h (1 Bft) S-SO 163 0 min 0 W/m 1,6 C 4,6 C 9,7 km/h (2 Bft)
16.02.2019 02:00 4,7 C 82 % 1023,4 hPa 0,0 l/m 5,7 km/h (2 Bft) S-SO 164 0 min 0 W/m 1,9 C 4,7 C 9,7 km/h (2 Bft)
16.02.2019 02:03 4,8 C 82 % 1023,4 hPa 0,0 l/m 6,8 km/h (2 Bft) S-SO 164 0 min 0 W/m 2,0 C 4,5 C 9,7 km/h (2 Bft)
16.02.2019 02:06 4,9 C 82 % 1023,4 hPa 0,0 l/m 8,0 km/h (2 Bft) S-SO 165 0 min 0 W/m 2,1 C 3,5 C 11,3 km/h (2 Bft)
16.02.2019 02:09 5,1 C 81 % 1023,4 hPa 0,0 l/m 6,5 km/h (2 Bft) S-SO 165 0 min 0 W/m 2,1 C 5,0 C 9,7 km/h (2 Bft)
16.02.2019 02:12 5,2 C 81 % 1023,4 hPa 0,0 l/m 4,7 km/h (1 Bft) S-SO 164 0 min 0 W/m 2,2 C 5,2 C 11,3 km/h (2 Bft)
16.02.2019 02:15 5,2 C 81 % 1023,3 hPa 0,0 l/m 5,1 km/h (1 Bft) S-SO 164 0 min 0 W/m 2,2 C 5,2 C 9,7 km/h (2 Bft)
16.02.2019 02:18 5,3 C 80 % 1023,3 hPa 0,0 l/m 6,4 km/h (2 Bft) S-SO 164 0 min 0 W/m 2,1 C 5,3 C 11,3 km/h (2 Bft)
16.02.2019 02:21 5,3 C 80 % 1023,3 hPa 0,0 l/m 5,3 km/h (1 Bft) S-SO 164 0 min 0 W/m 2,1 C 5,3 C 9,7 km/h (2 Bft)
16.02.2019 02:24 5,4 C 79 % 1023,2 hPa 0,0 l/m 5,2 km/h (1 Bft) S-SO 164 0 min 0 W/m 2,1 C 5,4 C 9,7 km/h (2 Bft)
16.02.2019 02:27 5,4 C 79 % 1023,2 hPa 0,0 l/m 6,0 km/h (2 Bft) S-SO 164 0 min 0 W/m 2,1 C 5,4 C 9,7 km/h (2 Bft)
16.02.2019 02:30 5,5 C 79 % 1023,2 hPa 0,0 l/m 5,1 km/h (1 Bft) S-SO 164 0 min 0 W/m 2,2 C 5,5 C 8,0 km/h (2 Bft)
16.02.2019 02:33 5,5 C 78 % 1023,1 hPa 0,0 l/m 5,0 km/h (1 Bft) S-SO 164 0 min 0 W/m 2,0 C 5,5 C 8,0 km/h (2 Bft)
16.02.2019 02:36 5,5 C 78 % 1023,1 hPa 0,0 l/m 6,9 km/h (2 Bft) S-SO 165 0 min 0 W/m 2,0 C 5,1 C 11,3 km/h (2 Bft)
16.02.2019 02:39 5,6 C 78 % 1023,0 hPa 0,0 l/m 6,8 km/h (2 Bft) S-SO 165 0 min 0 W/m 2,1 C 5,3 C 11,3 km/h (2 Bft)
16.02.2019 02:42 5,6 C 77 % 1023,0 hPa 0,0 l/m 7,9 km/h (2 Bft) S-SO 165 0 min 0 W/m 1,9 C 4,3 C 11,3 km/h (2 Bft)
16.02.2019 02:45 5,6 C 77 % 1023,0 hPa 0,0 l/m 7,4 km/h (2 Bft) S-SO 165 0 min 0 W/m 1,9 C 4,7 C 11,3 km/h (2 Bft)
16.02.2019 02:48 5,7 C 77 % 1022,9 hPa 0,0 l/m 8,2 km/h (2 Bft) S-SO 165 0 min 0 W/m 2,0 C 4,2 C 11,3 km/h (2 Bft)
16.02.2019 02:51 5,7 C 77 % 1023,0 hPa 0,0 l/m 8,6 km/h (2 Bft) S-SO 165 0 min 0 W/m 2,0 C 3,9 C 11,3 km/h (2 Bft)
16.02.2019 02:54 5,7 C 76 % 1022,9 hPa 0,0 l/m 9,9 km/h (2 Bft) S-SO 165 0 min 0 W/m 1,8 C 2,9 C 14,5 km/h (3 Bft)
16.02.2019 02:57 5,7 C 76 % 1022,8 hPa 0,0 l/m 8,9 km/h (2 Bft) S 178 0 min 0 W/m 1,8 C 3,6 C 17,7 km/h (3 Bft)
16.02.2019 03:00 5,7 C 76 % 1022,8 hPa 0,0 l/m 9,1 km/h (2 Bft) S 176 0 min 0 W/m 1,8 C 3,5 C 17,7 km/h (3 Bft)
16.02.2019 03:03 5,8 C 76 % 1022,8 hPa 0,0 l/m 8,7 km/h (2 Bft) S 180 0 min 0 W/m 1,9 C 3,9 C 14,5 km/h (3 Bft)
16.02.2019 03:06 5,8 C 76 % 1022,7 hPa 0,0 l/m 9,4 km/h (2 Bft) S 179 0 min 0 W/m 1,9 C 3,4 C 14,5 km/h (3 Bft)
16.02.2019 03:09 5,9 C 75 % 1022,7 hPa 0,0 l/m 8,5 km/h (2 Bft) S 178 0 min 0 W/m 1,8 C 4,2 C 11,3 km/h (2 Bft)
16.02.2019 03:12 5,9 C 75 % 1022,6 hPa 0,0 l/m 8,1 km/h (2 Bft) S 178 0 min 0 W/m 1,8 C 4,5 C 11,3 km/h (2 Bft)
16.02.2019 03:15 6,1 C 75 % 1022,6 hPa 0,0 l/m 10,2 km/h (2 Bft) S 178 0 min 0 W/m 2,0 C 3,2 C 16,1 km/h (3 Bft)
16.02.2019 03:18 6,1 C 75 % 1022,5 hPa 0,0 l/m 8,2 km/h (2 Bft) S 178 0 min 0 W/m 2,0 C 4,6 C 11,3 km/h (2 Bft)
16.02.2019 03:21 6,2 C 74 % 1022,4 hPa 0,0 l/m 9,6 km/h (2 Bft) S 179 0 min 0 W/m 1,9 C 3,7 C 14,5 km/h (3 Bft)
16.02.2019 03:24 6,2 C 74 % 1022,4 hPa 0,0 l/m 9,9 km/h (2 Bft) S 181 0 min 0 W/m 1,9 C 3,5 C 16,1 km/h (3 Bft)
16.02.2019 03:27 6,2 C 74 % 1022,3 hPa 0,0 l/m 11,1 km/h (2 Bft) S 182 0 min 0 W/m 1,9 C 2,7 C 16,1 km/h (3 Bft)
16.02.2019 03:30 6,3 C 74 % 1022,3 hPa 0,0 l/m 11,8 km/h (2 Bft) S 174 0 min 0 W/m 2,0 C 2,4 C 16,1 km/h (3 Bft)
16.02.2019 03:33 6,3 C 73 % 1022,3 hPa 0,0 l/m 9,8 km/h (2 Bft) S 176 0 min 0 W/m 1,8 C 3,6 C 17,7 km/h (3 Bft)
16.02.2019 03:36 6,4 C 73 % 1022,2 hPa 0,0 l/m 10,4 km/h (2 Bft) S 177 0 min 0 W/m 1,9 C 3,4 C 16,1 km/h (3 Bft)
16.02.2019 03:39 6,4 C 73 % 1022,2 hPa 0,0 l/m 10,4 km/h (2 Bft) S 184 0 min 0 W/m 1,9 C 3,4 C 16,1 km/h (3 Bft)
16.02.2019 03:42 6,4 C 72 % 1022,2 hPa 0,0 l/m 9,1 km/h (2 Bft) S 186 0 min 0 W/m 1,7 C 4,2 C 14,5 km/h (3 Bft)
16.02.2019 03:45 6,5 C 72 % 1022,1 hPa 0,0 l/m 8,2 km/h (2 Bft) S 175 0 min 0 W/m 1,8 C 5,0 C 12,9 km/h (3 Bft)
16.02.2019 03:48 6,5 C 72 % 1022,1 hPa 0,0 l/m 8,9 km/h (2 Bft) S 177 0 min 0 W/m 1,8 C 4,5 C 14,5 km/h (3 Bft)
16.02.2019 03:51 6,5 C 71 % 1022,0 hPa 0,0 l/m 8,1 km/h (2 Bft) S 182 0 min 0 W/m 1,6 C 5,1 C 14,5 km/h (3 Bft)
16.02.2019 03:54 6,5 C 71 % 1022,0 hPa 0,0 l/m 6,7 km/h (2 Bft) S 188 0 min 0 W/m 1,6 C 6,3 C 9,7 km/h (2 Bft)
16.02.2019 03:57 6,4 C 71 % 1022,0 hPa 0,0 l/m 6,3 km/h (2 Bft) S 188 0 min 0 W/m 1,5 C 6,4 C 8,0 km/h (2 Bft)
16.02.2019 04:00 6,4 C 71 % 1022,1 hPa 0,0 l/m 5,6 km/h (2 Bft) S-SO 150 0 min 0 W/m 1,5 C 6,4 C 11,3 km/h (2 Bft)
16.02.2019 04:03 6,4 C 71 % 1022,0 hPa 0,0 l/m 6,4 km/h (2 Bft) S 180 0 min 0 W/m 1,5 C 6,4 C 11,3 km/h (2 Bft)
16.02.2019 04:06 6,3 C 71 % 1022,0 hPa 0,0 l/m 5,8 km/h (2 Bft) S 180 0 min 0 W/m 1,4 C 6,3 C 9,7 km/h (2 Bft)
16.02.2019 04:09 6,3 C 71 % 1021,9 hPa 0,0 l/m 6,6 km/h (2 Bft) S 182 0 min 0 W/m 1,4 C 6,2 C 11,3 km/h (2 Bft)
16.02.2019 04:12 6,3 C 71 % 1021,9 hPa 0,0 l/m 8,5 km/h (2 Bft) S 182 0 min 0 W/m 1,4 C 4,6 C 11,3 km/h (2 Bft)
16.02.2019 04:15 6,2 C 71 % 1021,8 hPa 0,0 l/m 8,0 km/h (2 Bft) S 182 0 min 0 W/m 1,3 C 4,9 C 11,3 km/h (2 Bft)
16.02.2019 04:18 6,2 C 71 % 1021,7 hPa 0,0 l/m 7,9 km/h (2 Bft) S 182 0 min 0 W/m 1,3 C 4,9 C 12,9 km/h (3 Bft)
16.02.2019 04:21 6,2 C 71 % 1021,7 hPa 0,0 l/m 9,9 km/h (2 Bft) S 177 0 min 0 W/m 1,3 C 3,5 C 16,1 km/h (3 Bft)
16.02.2019 04:24 6,2 C 71 % 1021,7 hPa 0,0 l/m 9,7 km/h (2 Bft) S 187 0 min 0 W/m 1,3 C 3,6 C 14,5 km/h (3 Bft)
16.02.2019 04:27 6,2 C 71 % 1021,7 hPa 0,0 l/m 10,8 km/h (2 Bft) S 183 0 min 0 W/m 1,3 C 2,9 C 19,3 km/h (3 Bft)
16.02.2019 04:30 6,3 C 71 % 1021,6 hPa 0,0 l/m 12,1 km/h (2 Bft) S-SW 202 0 min 0 W/m 1,4 C 2,2 C 19,3 km/h (3 Bft)
16.02.2019 04:33 6,3 C 71 % 1021,6 hPa 0,0 l/m 11,9 km/h (2 Bft) S 182 0 min 0 W/m 1,4 C 2,3 C 17,7 km/h (3 Bft)
16.02.2019 04:36 6,4 C 71 % 1021,7 hPa 0,0 l/m 11,1 km/h (2 Bft) S 175 0 min 0 W/m 1,5 C 2,9 C 14,5 km/h (3 Bft)
16.02.2019 04:39 6,5 C 70 % 1021,7 hPa 0,0 l/m 10,9 km/h (2 Bft) S 177 0 min 0 W/m 1,4 C 3,1 C 20,9 km/h (4 Bft)
16.02.2019 04:42 6,6 C 70 % 1021,8 hPa 0,0 l/m 9,6 km/h (2 Bft) SW 227 0 min 0 W/m 1,5 C 4,1 C 17,7 km/h (3 Bft)
16.02.2019 04:45 6,6 C 70 % 1021,8 hPa 0,0 l/m 8,3 km/h (2 Bft) S 186 0 min 0 W/m 1,5 C 5,1 C 12,9 km/h (3 Bft)
16.02.2019 04:48 6,6 C 70 % 1021,8 hPa 0,0 l/m 9,1 km/h (2 Bft) S-SW 199 0 min 0 W/m 1,5 C 4,5 C 16,1 km/h (3 Bft)
16.02.2019 04:51 6,7 C 69 % 1021,8 hPa 0,0 l/m 7,9 km/h (2 Bft) SW 215 0 min 0 W/m 1,4 C 5,5 C 14,5 km/h (3 Bft)
16.02.2019 04:54 6,7 C 69 % 1021,8 hPa 0,0 l/m 7,0 km/h (2 Bft) S-SW 200 0 min 0 W/m 1,4 C 6,2 C 9,7 km/h (2 Bft)
16.02.2019 04:57 6,7 C 69 % 1021,8 hPa 0,0 l/m 8,9 km/h (2 Bft) S-SW 198 0 min 0 W/m 1,4 C 4,7 C 16,1 km/h (3 Bft)
16.02.2019 05:00 6,7 C 69 % 1021,8 hPa 0,0 l/m 8,0 km/h (2 Bft) S 188 0 min 0 W/m 1,4 C 5,4 C 11,3 km/h (2 Bft)
16.02.2019 05:03 6,7 C 69 % 1021,8 hPa 0,0 l/m 8,6 km/h (2 Bft) S 185 0 min 0 W/m 1,4 C 4,9 C 12,9 km/h (3 Bft)
16.02.2019 05:06 6,7 C 69 % 1021,8 hPa 0,0 l/m 9,7 km/h (2 Bft) S 184 0 min 0 W/m 1,4 C 4,2 C 19,3 km/h (3 Bft)
16.02.2019 05:09 6,7 C 69 % 1021,8 hPa 0,0 l/m 8,8 km/h (2 Bft) S 187 0 min 0 W/m 1,4 C 4,8 C 17,7 km/h (3 Bft)
16.02.2019 05:12 6,7 C 69 % 1021,8 hPa 0,0 l/m 8,4 km/h (2 Bft) S-SW 208 0 min 0 W/m 1,4 C 5,1 C 16,1 km/h (3 Bft)
16.02.2019 05:15 6,7 C 69 % 1021,8 hPa 0,0 l/m 6,9 km/h (2 Bft) S 189 0 min 0 W/m 1,4 C 6,3 C 11,3 km/h (2 Bft)
16.02.2019 05:18 6,6 C 69 % 1021,8 hPa 0,0 l/m 8,0 km/h (2 Bft) S 184 0 min 0 W/m 1,3 C 5,3 C 11,3 km/h (2 Bft)
16.02.2019 05:21 6,6 C 69 % 1021,8 hPa 0,0 l/m 8,8 km/h (2 Bft) S 173 0 min 0 W/m 1,3 C 4,7 C 14,5 km/h (3 Bft)
16.02.2019 05:24 6,5 C 69 % 1021,7 hPa 0,0 l/m 8,3 km/h (2 Bft) S 174 0 min 0 W/m 1,2 C 4,9 C 12,9 km/h (3 Bft)
16.02.2019 05:27 6,4 C 69 % 1021,7 hPa 0,0 l/m 9,2 km/h (2 Bft) S-SW 197 0 min 0 W/m 1,1 C 4,2 C 12,9 km/h (3 Bft)
16.02.2019 05:30 6,4 C 69 % 1021,6 hPa 0,0 l/m 8,1 km/h (2 Bft) S-SW 201 0 min 0 W/m 1,1 C 5,0 C 16,1 km/h (3 Bft)
16.02.2019 05:33 6,4 C 69 % 1021,6 hPa 0,0 l/m 8,3 km/h (2 Bft) S-SW 205 0 min 0 W/m 1,1 C 4,8 C 12,9 km/h (3 Bft)
16.02.2019 05:36 6,3 C 70 % 1021,6 hPa 0,0 l/m 7,9 km/h (2 Bft) S-SW 201 0 min 0 W/m 1,2 C 5,0 C 14,5 km/h (3 Bft)
16.02.2019 05:39 6,3 C 70 % 1021,6 hPa 0,0 l/m 8,1 km/h (2 Bft) S-SW 201 0 min 0 W/m 1,2 C 4,9 C 14,5 km/h (3 Bft)
16.02.2019 05:42 6,3 C 70 % 1021,5 hPa 0,0 l/m 9,7 km/h (2 Bft) S-SW 205 0 min 0 W/m 1,2 C 3,7 C 16,1 km/h (3 Bft)
16.02.2019 05:45 6,3 C 70 % 1021,4 hPa 0,0 l/m 9,5 km/h (2 Bft) S-SW 211 0 min 0 W/m 1,2 C 3,9 C 14,5 km/h (3 Bft)
16.02.2019 05:48 6,3 C 70 % 1021,4 hPa 0,0 l/m 9,2 km/h (2 Bft) SW 236 0 min 0 W/m 1,2 C 4,1 C 14,5 km/h (3 Bft)
16.02.2019 05:51 6,3 C 70 % 1021,5 hPa 0,0 l/m 8,3 km/h (2 Bft) S 190 0 min 0 W/m 1,2 C 4,7 C 17,7 km/h (3 Bft)
16.02.2019 05:54 6,3 C 70 % 1021,5 hPa 0,0 l/m 8,8 km/h (2 Bft) S 189 0 min 0 W/m 1,2 C 4,4 C 14,5 km/h (3 Bft)
16.02.2019 05:57 6,2 C 70 % 1021,6 hPa 0,0 l/m 8,5 km/h (2 Bft) SW 221 0 min 0 W/m 1,1 C 4,5 C 11,3 km/h (2 Bft)
16.02.2019 06:00 6,2 C 70 % 1021,5 hPa 0,0 l/m 9,8 km/h (2 Bft) S-SW 206 0 min 0 W/m 1,1 C 3,5 C 16,1 km/h (3 Bft)
16.02.2019 06:03 6,2 C 70 % 1021,6 hPa 0,0 l/m 9,9 km/h (2 Bft) SW 216 0 min 0 W/m 1,1 C 3,5 C 14,5 km/h (3 Bft)
16.02.2019 06:06 6,2 C 70 % 1021,6 hPa 0,0 l/m 9,2 km/h (2 Bft) S 186 0 min 0 W/m 1,1 C 4,0 C 16,1 km/h (3 Bft)
16.02.2019 06:09 6,2 C 70 % 1021,6 hPa 0,0 l/m 8,5 km/h (2 Bft) S-SW 213 0 min 0 W/m 1,1 C 4,5 C 11,3 km/h (2 Bft)
16.02.2019 06:12 6,2 C 70 % 1021,7 hPa 0,0 l/m 8,9 km/h (2 Bft) S-SW 205 0 min 0 W/m 1,1 C 4,2 C 14,5 km/h (3 Bft)
16.02.2019 06:15 6,2 C 70 % 1021,6 hPa 0,0 l/m 8,6 km/h (2 Bft) S 171 0 min 0 W/m 1,1 C 4,4 C 17,7 km/h (3 Bft)
16.02.2019 06:18 6,1 C 70 % 1021,6 hPa 0,0 l/m 9,6 km/h (2 Bft) SW 216 0 min 0 W/m 1,0 C 3,6 C 16,1 km/h (3 Bft)
16.02.2019 06:21 6,1 C 70 % 1021,6 hPa 0,0 l/m 9,5 km/h (2 Bft) S-SO 165 0 min 0 W/m 1,0 C 3,6 C 16,1 km/h (3 Bft)
16.02.2019 06:24 6,0 C 71 % 1021,4 hPa 0,0 l/m 9,6 km/h (2 Bft) S 185 0 min 0 W/m 1,1 C 3,5 C 19,3 km/h (3 Bft)
16.02.2019 06:27 6,0 C 71 % 1021,5 hPa 0,0 l/m 8,8 km/h (2 Bft) S-SW 207 0 min 0 W/m 1,1 C 4,0 C 14,5 km/h (3 Bft)
16.02.2019 06:30 5,9 C 71 % 1021,5 hPa 0,0 l/m 9,7 km/h (2 Bft) SW 216 0 min 0 W/m 1,1 C 3,3 C 17,7 km/h (3 Bft)
16.02.2019 06:33 5,9 C 71 % 1021,6 hPa 0,0 l/m 10,0 km/h (2 Bft) SW 225 0 min 0 W/m 1,1 C 3,1 C 19,3 km/h (3 Bft)
16.02.2019 06:36 5,9 C 71 % 1021,6 hPa 0,0 l/m 10,3 km/h (2 Bft) S-SW 204 0 min 0 W/m 1,1 C 2,9 C 14,5 km/h (3 Bft)
16.02.2019 06:39 5,9 C 71 % 1021,6 hPa 0,0 l/m 10,9 km/h (2 Bft) SW 218 0 min 0 W/m 1,1 C 2,5 C 16,1 km/h (3 Bft)
16.02.2019 06:42 5,9 C 71 % 1021,5 hPa 0,0 l/m 11,5 km/h (2 Bft) S-SW 211 0 min 0 W/m 1,1 C 2,1 C 17,7 km/h (3 Bft)
16.02.2019 06:45 5,9 C 71 % 1021,4 hPa 0,0 l/m 11,5 km/h (2 Bft) S-SW 200 0 min 0 W/m 1,1 C 2,1 C 19,3 km/h (3 Bft)
16.02.2019 06:48 5,9 C 71 % 1021,4 hPa 0,0 l/m 11,5 km/h (2 Bft) SW 229 0 min 0 W/m 1,1 C 2,1 C 16,1 km/h (3 Bft)
16.02.2019 06:51 5,9 C 71 % 1021,5 hPa 0,0 l/m 9,5 km/h (2 Bft) S-SW 196 0 min 0 W/m 1,1 C 3,4 C 20,9 km/h (4 Bft)
16.02.2019 06:54 5,9 C 71 % 1021,5 hPa 0,0 l/m 10,7 km/h (2 Bft) S-SW 213 0 min 0 W/m 1,1 C 2,6 C 16,1 km/h (3 Bft)
16.02.2019 06:57 5,9 C 72 % 1021,6 hPa 0,0 l/m 11,3 km/h (2 Bft) S-SW 198 0 min 0 W/m 1,2 C 2,2 C 17,7 km/h (3 Bft)
16.02.2019 07:00 5,8 C 72 % 1021,6 hPa 0,0 l/m 11,7 km/h (2 Bft) S-SW 205 0 min 0 W/m 1,2 C 1,9 C 20,9 km/h (4 Bft)
16.02.2019 07:03 5,8 C 72 % 1021,5 hPa 0,0 l/m 10,0 km/h (2 Bft) S-SW 193 0 min 0 W/m 1,2 C 3,0 C 16,1 km/h (3 Bft)
16.02.2019 07:06 5,8 C 72 % 1021,6 hPa 0,0 l/m 9,3 km/h (2 Bft) S-SW 204 0 min 0 W/m 1,2 C 3,4 C 14,5 km/h (3 Bft)
16.02.2019 07:09 5,8 C 72 % 1021,5 hPa 0,0 l/m 10,4 km/h (2 Bft) S-SW 201 0 min 0 W/m 1,2 C 2,7 C 17,7 km/h (3 Bft)
16.02.2019 07:12 5,8 C 72 % 1021,6 hPa 0,0 l/m 9,9 km/h (2 Bft) S-SW 206 0 min 0 W/m 1,2 C 3,0 C 16,1 km/h (3 Bft)
16.02.2019 07:15 5,7 C 72 % 1021,5 hPa 0,0 l/m 11,3 km/h (2 Bft) S-SW 192 0 min 0 W/m 1,1 C 2,0 C 16,1 km/h (3 Bft)
16.02.2019 07:18 5,7 C 73 % 1021,5 hPa 0,0 l/m 10,4 km/h (2 Bft) S-SW 194 0 min 0 W/m 1,2 C 2,6 C 16,1 km/h (3 Bft)
16.02.2019 07:21 5,7 C 73 % 1021,5 hPa 0,0 l/m 11,1 km/h (2 Bft) SW 219 0 min 0 W/m 1,2 C 2,1 C 16,1 km/h (3 Bft)
16.02.2019 07:24 5,6 C 73 % 1021,5 hPa 0,0 l/m 11,4 km/h (2 Bft) S 171 0 min 0 W/m 1,2 C 1,8 C 22,5 km/h (4 Bft)
16.02.2019 07:27 5,6 C 73 % 1021,4 hPa 0,0 l/m 10,8 km/h (2 Bft) S-SW 202 0 min 0 W/m 1,2 C 2,2 C 17,7 km/h (3 Bft)
16.02.2019 07:30 5,6 C 73 % 1021,5 hPa 0,0 l/m 9,7 km/h (2 Bft) S-SW 203 0 min 0 W/m 1,2 C 2,9 C 14,5 km/h (3 Bft)
16.02.2019 07:33 5,6 C 73 % 1021,5 hPa 0,0 l/m 12,7 km/h (3 Bft) S-SW 196 0 min 0 W/m 1,2 C 1,0 C 19,3 km/h (3 Bft)
16.02.2019 07:36 5,5 C 73 % 1021,4 hPa 0,0 l/m 10,9 km/h (2 Bft) SW 217 0 min 0 W/m 1,1 C 2,0 C 19,3 km/h (3 Bft)
16.02.2019 07:39 5,5 C 73 % 1021,4 hPa 0,0 l/m 10,4 km/h (2 Bft) S-SW 205 0 min 0 W/m 1,1 C 2,4 C 14,5 km/h (3 Bft)
16.02.2019 07:42 5,5 C 73 % 1021,4 hPa 0,0 l/m 12,4 km/h (2 Bft) SW 215 0 min 0 W/m 1,1 C 1,1 C 17,7 km/h (3 Bft)
16.02.2019 07:45 5,5 C 73 % 1021,5 hPa 0,0 l/m 10,3 km/h (2 Bft) SW 233 0 min 0 W/m 1,1 C 2,4 C 17,7 km/h (3 Bft)
16.02.2019 07:48 5,5 C 73 % 1021,5 hPa 0,0 l/m 10,7 km/h (2 Bft) S-SW 207 0 min 5 W/m 1,1 C 2,2 C 17,7 km/h (3 Bft)
16.02.2019 07:51 5,6 C 73 % 1021,5 hPa 0,0 l/m 12,1 km/h (2 Bft) SW 223 0 min 5 W/m 1,2 C 1,4 C 19,3 km/h (3 Bft)
16.02.2019 07:54 5,6 C 73 % 1021,5 hPa 0,0 l/m 12,7 km/h (3 Bft) S-SW 207 0 min 5 W/m 1,2 C 1,0 C 19,3 km/h (3 Bft)
16.02.2019 07:57 5,6 C 73 % 1021,5 hPa 0,0 l/m 12,9 km/h (3 Bft) SW 217 0 min 7 W/m 1,2 C 0,9 C 20,9 km/h (4 Bft)
16.02.2019 08:00 5,6 C 73 % 1021,6 hPa 0,0 l/m 10,2 km/h (2 Bft) S-SW 213 0 min 7 W/m 1,2 C 2,6 C 14,5 km/h (3 Bft)
16.02.2019 08:03 5,6 C 73 % 1021,7 hPa 0,0 l/m 12,1 km/h (2 Bft) W-SW 244 0 min 9 W/m 1,2 C 1,4 C 17,7 km/h (3 Bft)
16.02.2019 08:06 5,6 C 73 % 1021,7 hPa 0,0 l/m 11,4 km/h (2 Bft) W-SW 240 0 min 9 W/m 1,2 C 1,8 C 17,7 km/h (3 Bft)
16.02.2019 08:09 5,7 C 73 % 1021,8 hPa 0,0 l/m 10,9 km/h (2 Bft) S-SW 213 0 min 11 W/m 1,2 C 2,2 C 17,7 km/h (3 Bft)
16.02.2019 08:12 5,7 C 73 % 1021,8 hPa 0,0 l/m 8,0 km/h (2 Bft) SW 219 0 min 11 W/m 1,2 C 4,3 C 14,5 km/h (3 Bft)
16.02.2019 08:15 5,7 C 73 % 1021,8 hPa 0,0 l/m 10,2 km/h (2 Bft) SW 220 0 min 11 W/m 1,2 C 2,7 C 16,1 km/h (3 Bft)
16.02.2019 08:18 5,7 C 73 % 1021,7 hPa 0,0 l/m 8,6 km/h (2 Bft) S-SW 198 0 min 12 W/m 1,2 C 3,9 C 16,1 km/h (3 Bft)
16.02.2019 08:21 5,7 C 73 % 1021,7 hPa 0,0 l/m 8,7 km/h (2 Bft) SW 229 0 min 12 W/m 1,2 C 3,8 C 11,3 km/h (2 Bft)
16.02.2019 08:24 5,7 C 73 % 1021,6 hPa 0,0 l/m 10,9 km/h (2 Bft) SW 221 0 min 14 W/m 1,2 C 2,2 C 16,1 km/h (3 Bft)
16.02.2019 08:27 5,7 C 73 % 1021,6 hPa 0,0 l/m 11,9 km/h (2 Bft) SW 234 0 min 14 W/m 1,2 C 1,6 C 20,9 km/h (4 Bft)
16.02.2019 08:30 5,7 C 74 % 1021,7 hPa 0,0 l/m 9,7 km/h (2 Bft) S-SW 199 0 min 14 W/m 1,4 C 3,1 C 16,1 km/h (3 Bft)
16.02.2019 08:33 5,7 C 74 % 1021,6 hPa 0,0 l/m 13,4 km/h (3 Bft) S-SW 207 0 min 16 W/m 1,4 C 0,8 C 17,7 km/h (3 Bft)
16.02.2019 08:36 5,7 C 74 % 1021,7 hPa 0,0 l/m 13,3 km/h (3 Bft) SW 230 0 min 16 W/m 1,4 C 0,8 C 17,7 km/h (3 Bft)
16.02.2019 08:39 5,7 C 74 % 1021,7 hPa 0,0 l/m 11,0 km/h (2 Bft) S-SW 211 0 min 16 W/m 1,4 C 2,2 C 17,7 km/h (3 Bft)
16.02.2019 08:42 5,7 C 74 % 1021,7 hPa 0,0 l/m 10,9 km/h (2 Bft) SW 236 0 min 18 W/m 1,4 C 2,2 C 16,1 km/h (3 Bft)
16.02.2019 08:45 5,8 C 74 % 1021,8 hPa 0,0 l/m 10,4 km/h (2 Bft) SW 223 0 min 18 W/m 1,5 C 2,7 C 16,1 km/h (3 Bft)
16.02.2019 08:48 5,8 C 74 % 1021,8 hPa 0,0 l/m 14,1 km/h (3 Bft) SW 215 0 min 19 W/m 1,5 C 0,5 C 20,9 km/h (4 Bft)
16.02.2019 08:51 5,9 C 74 % 1021,7 hPa 0,0 l/m 12,8 km/h (3 Bft) SW 229 0 min 19 W/m 1,6 C 1,3 C 17,7 km/h (3 Bft)
16.02.2019 08:54 6,0 C 74 % 1021,7 hPa 0,0 l/m 14,2 km/h (3 Bft) S-SW 204 0 min 19 W/m 1,7 C 0,7 C 27,4 km/h (5 Bft)
16.02.2019 08:57 6,1 C 74 % 1021,6 hPa 0,0 l/m 13,1 km/h (3 Bft) S-SW 212 0 min 19 W/m 1,8 C 1,4 C 22,5 km/h (4 Bft)
16.02.2019 09:00 6,1 C 73 % 1021,6 hPa 0,0 l/m 11,4 km/h (2 Bft) SW 227 0 min 19 W/m 1,6 C 2,4 C 22,5 km/h (4 Bft)
16.02.2019 09:03 6,2 C 73 % 1021,6 hPa 0,0 l/m 12,1 km/h (2 Bft) SW 215 0 min 21 W/m 1,7 C 2,1 C 20,9 km/h (4 Bft)
16.02.2019 09:06 6,2 C 73 % 1021,5 hPa 0,0 l/m 10,5 km/h (2 Bft) SW 228 0 min 21 W/m 1,7 C 3,1 C 16,1 km/h (3 Bft)
16.02.2019 09:09 6,3 C 74 % 1021,6 hPa 0,0 l/m 12,2 km/h (2 Bft) SW 236 0 min 21 W/m 2,0 C 2,1 C 17,7 km/h (3 Bft)
16.02.2019 09:12 6,3 C 73 % 1021,6 hPa 0,0 l/m 14,2 km/h (3 Bft) SW 223 0 min 21 W/m 1,8 C 1,1 C 22,5 km/h (4 Bft)
16.02.2019 09:15 6,4 C 73 % 1021,7 hPa 0,0 l/m 15,1 km/h (3 Bft) SW 219 0 min 23 W/m 1,9 C 0,7 C 20,9 km/h (4 Bft)
16.02.2019 09:18 6,4 C 73 % 1021,7 hPa 0,0 l/m 14,7 km/h (3 Bft) S-SW 208 0 min 25 W/m 1,9 C 0,9 C 24,1 km/h (4 Bft)
16.02.2019 09:21 6,6 C 73 % 1021,7 hPa 0,0 l/m 16,1 km/h (3 Bft) SW 236 0 min 25 W/m 2,1 C 0,5 C 25,7 km/h (4 Bft)
16.02.2019 09:24 6,6 C 73 % 1021,6 hPa 0,0 l/m 14,0 km/h (3 Bft) S-SW 194 0 min 25 W/m 2,1 C 1,5 C 27,4 km/h (5 Bft)
16.02.2019 09:27 6,7 C 73 % 1021,5 hPa 0,0 l/m 12,1 km/h (2 Bft) SW 232 0 min 25 W/m 2,2 C 2,7 C 19,3 km/h (3 Bft)
16.02.2019 09:30 6,7 C 73 % 1021,6 hPa 0,0 l/m 14,0 km/h (3 Bft) S-SW 210 0 min 26 W/m 2,2 C 1,6 C 19,3 km/h (3 Bft)
16.02.2019 09:33 6,8 C 73 % 1021,4 hPa 0,0 l/m 12,9 km/h (3 Bft) S-SW 200 0 min 26 W/m 2,3 C 2,3 C 20,9 km/h (4 Bft)
16.02.2019 09:36 6,8 C 73 % 1021,5 hPa 0,0 l/m 12,0 km/h (2 Bft) S-SW 207 0 min 26 W/m 2,3 C 2,8 C 19,3 km/h (3 Bft)
16.02.2019 09:39 6,8 C 73 % 1021,5 hPa 0,0 l/m 12,9 km/h (3 Bft) S-SW 199 0 min 26 W/m 2,3 C 2,3 C 19,3 km/h (3 Bft)
16.02.2019 09:42 6,8 C 73 % 1021,5 hPa 0,0 l/m 13,6 km/h (3 Bft) SW 215 0 min 26 W/m 2,3 C 2,0 C 20,9 km/h (4 Bft)
16.02.2019 09:45 6,9 C 73 % 1021,5 hPa 0,0 l/m 13,0 km/h (3 Bft) SW 226 0 min 26 W/m 2,4 C 2,4 C 22,5 km/h (4 Bft)
16.02.2019 09:48 6,9 C 73 % 1021,4 hPa 0,0 l/m 15,8 km/h (3 Bft) SW 223 0 min 28 W/m 2,4 C 1,0 C 25,7 km/h (4 Bft)
16.02.2019 09:51 7,0 C 73 % 1021,4 hPa 0,0 l/m 12,9 km/h (3 Bft) SW 214 0 min 28 W/m 2,5 C 2,6 C 25,7 km/h (4 Bft)
16.02.2019 09:54 7,1 C 73 % 1021,4 hPa 0,0 l/m 15,4 km/h (3 Bft) S 186 0 min 30 W/m 2,6 C 1,4 C 29,0 km/h (5 Bft)
16.02.2019 09:57 7,2 C 73 % 1021,3 hPa 0,0 l/m 15,8 km/h (3 Bft) S-SO 158 0 min 30 W/m 2,7 C 1,4 C 25,7 km/h (4 Bft)
16.02.2019 10:00 7,2 C 73 % 1021,4 hPa 0,0 l/m 13,9 km/h (3 Bft) SW 220 0 min 32 W/m 2,7 C 2,3 C 24,1 km/h (4 Bft)
16.02.2019 10:03 7,3 C 73 % 1021,6 hPa 0,0 l/m 15,3 km/h (3 Bft) SW 219 0 min 33 W/m 2,8 C 1,7 C 22,5 km/h (4 Bft)
16.02.2019 10:06 7,4 C 73 % 1021,6 hPa 0,0 l/m 18,0 km/h (3 Bft) S-SW 211 0 min 35 W/m 2,9 C 0,7 C 27,4 km/h (5 Bft)
16.02.2019 10:09 7,4 C 73 % 1021,6 hPa 0,0 l/m 16,6 km/h (3 Bft) SW 219 0 min 37 W/m 2,9 C 1,3 C 25,7 km/h (4 Bft)
16.02.2019 10:12 7,5 C 73 % 1021,6 hPa 0,0 l/m 14,1 km/h (3 Bft) SW 218 0 min 37 W/m 3,0 C 2,5 C 22,5 km/h (4 Bft)
16.02.2019 10:15 7,6 C 73 % 1021,7 hPa 0,0 l/m 16,8 km/h (3 Bft) SW 221 0 min 37 W/m 3,1 C 1,4 C 24,1 km/h (4 Bft)
16.02.2019 10:18 7,6 C 72 % 1021,6 hPa 0,0 l/m 16,5 km/h (3 Bft) SW 225 0 min 37 W/m 2,9 C 1,6 C 27,4 km/h (5 Bft)
16.02.2019 10:21 7,7 C 72 % 1021,7 hPa 0,0 l/m 17,8 km/h (3 Bft) W-SW 242 0 min 39 W/m 3,0 C 1,1 C 24,1 km/h (4 Bft)
16.02.2019 10:24 7,7 C 72 % 1021,6 hPa 0,0 l/m 16,9 km/h (3 Bft) SW 223 0 min 39 W/m 3,0 C 1,5 C 25,7 km/h (4 Bft)
16.02.2019 10:27 7,7 C 72 % 1021,6 hPa 0,0 l/m 16,7 km/h (3 Bft) S-SW 213 0 min 39 W/m 3,0 C 1,6 C 24,1 km/h (4 Bft)
16.02.2019 10:30 7,7 C 72 % 1021,6 hPa 0,0 l/m 16,8 km/h (3 Bft) W-SW 252 0 min 42 W/m 3,0 C 1,6 C 24,1 km/h (4 Bft)
16.02.2019 10:33 7,8 C 72 % 1021,6 hPa 0,0 l/m 17,0 km/h (3 Bft) SW 216 0 min 40 W/m 3,1 C 1,6 C 20,9 km/h (4 Bft)
16.02.2019 10:36 7,8 C 72 % 1021,6 hPa 0,0 l/m 15,9 km/h (3 Bft) S-SW 209 0 min 42 W/m 3,1 C 2,1 C 22,5 km/h (4 Bft)
16.02.2019 10:39 7,8 C 72 % 1021,6 hPa 0,0 l/m 19,1 km/h (3 Bft) S-SW 208 0 min 42 W/m 3,1 C 0,8 C 24,1 km/h (4 Bft)
16.02.2019 10:42 7,8 C 72 % 1021,7 hPa 0,0 l/m 14,5 km/h (3 Bft) SW 227 0 min 42 W/m 3,1 C 2,7 C 27,4 km/h (5 Bft)
16.02.2019 10:45 7,8 C 72 % 1021,7 hPa 0,0 l/m 16,1 km/h (3 Bft) SW 224 0 min 42 W/m 3,1 C 2,0 C 27,4 km/h (5 Bft)
16.02.2019 10:48 7,9 C 72 % 1021,8 hPa 0,0 l/m 14,8 km/h (3 Bft) S-SW 202 0 min 44 W/m 3,2 C 2,7 C 20,9 km/h (4 Bft)
16.02.2019 10:51 7,9 C 72 % 1021,8 hPa 0,0 l/m 12,8 km/h (3 Bft) SW 216 0 min 44 W/m 3,2 C 3,7 C 19,3 km/h (3 Bft)
16.02.2019 10:54 8,0 C 72 % 1021,9 hPa 0,0 l/m 14,4 km/h (3 Bft) SW 221 0 min 47 W/m 3,3 C 3,0 C 22,5 km/h (4 Bft)
16.02.2019 10:57 8,1 C 72 % 1022,0 hPa 0,0 l/m 16,8 km/h (3 Bft) W-SW 241 3 min 221 W/m 3,4 C 2,1 C 22,5 km/h (4 Bft)
16.02.2019 11:00 8,1 C 72 % 1021,9 hPa 0,0 l/m 14,5 km/h (3 Bft) S-SW 213 3 min 276 W/m 3,4 C 3,1 C 22,5 km/h (4 Bft)
16.02.2019 11:03 8,2 C 72 % 1021,8 hPa 0,0 l/m 15,0 km/h (3 Bft) S-SW 211 3 min 278 W/m 3,5 C 3,0 C 25,7 km/h (4 Bft)
16.02.2019 11:06 8,3 C 72 % 1021,8 hPa 0,0 l/m 15,0 km/h (3 Bft) S-SW 208 3 min 279 W/m 3,6 C 3,1 C 24,1 km/h (4 Bft)
16.02.2019 11:09 8,3 C 72 % 1021,8 hPa 0,0 l/m 15,5 km/h (3 Bft) SW 228 3 min 279 W/m 3,6 C 2,9 C 22,5 km/h (4 Bft)
16.02.2019 11:12 8,4 C 72 % 1021,7 hPa 0,0 l/m 16,5 km/h (3 Bft) S-SW 213 3 min 279 W/m 3,7 C 2,5 C 24,1 km/h (4 Bft)
16.02.2019 11:15 8,6 C 72 % 1021,8 hPa 0,0 l/m 15,5 km/h (3 Bft) SW 225 3 min 274 W/m 3,8 C 3,2 C 22,5 km/h (4 Bft)
16.02.2019 11:18 8,7 C 71 % 1021,8 hPa 0,0 l/m 15,4 km/h (3 Bft) S-SW 209 3 min 287 W/m 3,7 C 3,4 C 24,1 km/h (4 Bft)
16.02.2019 11:21 8,8 C 71 % 1021,7 hPa 0,0 l/m 15,9 km/h (3 Bft) SW 217 3 min 295 W/m 3,8 C 3,3 C 22,5 km/h (4 Bft)
16.02.2019 11:24 9,0 C 71 % 1021,7 hPa 0,0 l/m 13,6 km/h (3 Bft) SW 220 3 min 290 W/m 4,0 C 4,6 C 20,9 km/h (4 Bft)
16.02.2019 11:27 9,1 C 71 % 1021,7 hPa 0,0 l/m 14,5 km/h (3 Bft) SW 217 3 min 264 W/m 4,1 C 4,3 C 24,1 km/h (4 Bft)
16.02.2019 11:30 9,2 C 71 % 1021,7 hPa 0,0 l/m 11,8 km/h (2 Bft) SW 221 3 min 272 W/m 4,2 C 5,7 C 17,7 km/h (3 Bft)
16.02.2019 11:33 9,2 C 71 % 1021,8 hPa 0,0 l/m 13,8 km/h (3 Bft) SW 215 3 min 267 W/m 4,2 C 4,7 C 19,3 km/h (3 Bft)
16.02.2019 11:36 9,3 C 70 % 1021,8 hPa 0,0 l/m 15,0 km/h (3 Bft) SW 220 3 min 250 W/m 4,1 C 4,3 C 20,9 km/h (4 Bft)
16.02.2019 11:39 9,3 C 71 % 1021,7 hPa 0,0 l/m 12,7 km/h (3 Bft) SW 224 3 min 274 W/m 4,3 C 5,4 C 22,5 km/h (4 Bft)
16.02.2019 11:42 9,4 C 71 % 1021,6 hPa 0,0 l/m 15,9 km/h (3 Bft) W-SW 240 3 min 251 W/m 4,4 C 4,0 C 20,9 km/h (4 Bft)
16.02.2019 11:45 9,6 C 71 % 1021,5 hPa 0,0 l/m 13,5 km/h (3 Bft) S-SW 202 3 min 313 W/m 4,6 C 5,3 C 20,9 km/h (4 Bft)
16.02.2019 11:48 9,7 C 71 % 1021,6 hPa 0,0 l/m 14,1 km/h (3 Bft) SW 234 3 min 295 W/m 4,7 C 5,2 C 17,7 km/h (3 Bft)
16.02.2019 11:51 9,7 C 71 % 1021,7 hPa 0,0 l/m 13,0 km/h (3 Bft) SW 219 3 min 302 W/m 4,7 C 5,7 C 17,7 km/h (3 Bft)
16.02.2019 11:54 9,8 C 71 % 1021,6 hPa 0,0 l/m 12,5 km/h (2 Bft) S 190 3 min 241 W/m 4,8 C 6,0 C 20,9 km/h (4 Bft)
16.02.2019 11:57 9,8 C 71 % 1021,7 hPa 0,0 l/m 12,0 km/h (2 Bft) SW 229 3 min 292 W/m 4,8 C 6,3 C 19,3 km/h (3 Bft)
16.02.2019 12:00 9,9 C 71 % 1021,6 hPa 0,0 l/m 13,8 km/h (3 Bft) SW 217 3 min 353 W/m 4,9 C 5,5 C 19,3 km/h (3 Bft)
16.02.2019 12:03 10,1 C 71 % 1021,6 hPa 0,0 l/m 14,5 km/h (3 Bft) S-SW 204 3 min 339 W/m 5,1 C 5,5 C 25,7 km/h (4 Bft)
16.02.2019 12:06 10,2 C 70 % 1021,6 hPa 0,0 l/m 15,2 km/h (3 Bft) W-SW 243 3 min 343 W/m 5,0 C 5,3 C 22,5 km/h (4 Bft)
16.02.2019 12:09 10,3 C 70 % 1021,7 hPa 0,0 l/m 15,2 km/h (3 Bft) SW 219 3 min 362 W/m 5,1 C 5,4 C 27,4 km/h (5 Bft)
16.02.2019 12:12 10,4 C 70 % 1021,6 hPa 0,0 l/m 12,9 km/h (3 Bft) S-SW 205 3 min 390 W/m 5,2 C 6,5 C 19,3 km/h (3 Bft)
16.02.2019 12:15 10,5 C 69 % 1021,6 hPa 0,0 l/m 13,7 km/h (3 Bft) SW 220 3 min 406 W/m 5,1 C 6,3 C 22,5 km/h (4 Bft)
16.02.2019 12:18 10,6 C 69 % 1021,6 hPa 0,0 l/m 17,2 km/h (3 Bft) SW 228 3 min 388 W/m 5,2 C 5,0 C 24,1 km/h (4 Bft)
16.02.2019 12:21 10,8 C 69 % 1021,6 hPa 0,0 l/m 14,4 km/h (3 Bft) S-SW 207 3 min 355 W/m 5,3 C 6,4 C 20,9 km/h (4 Bft)
16.02.2019 12:24 10,8 C 68 % 1021,6 hPa 0,0 l/m 15,9 km/h (3 Bft) SW 217 3 min 353 W/m 5,1 C 5,7 C 22,5 km/h (4 Bft)
16.02.2019 12:27 10,8 C 69 % 1021,7 hPa 0,0 l/m 14,0 km/h (3 Bft) S 187 3 min 320 W/m 5,3 C 6,5 C 20,9 km/h (4 Bft)
16.02.2019 12:30 10,8 C 69 % 1021,6 hPa 0,0 l/m 14,1 km/h (3 Bft) SW 231 3 min 322 W/m 5,3 C 6,5 C 19,3 km/h (3 Bft)
16.02.2019 12:33 10,8 C 69 % 1021,6 hPa 0,0 l/m 12,0 km/h (2 Bft) S-SW 192 3 min 336 W/m 5,3 C 7,4 C 17,7 km/h (3 Bft)
16.02.2019 12:36 10,9 C 69 % 1021,5 hPa 0,0 l/m 13,7 km/h (3 Bft) W-SW 242 3 min 360 W/m 5,4 C 6,8 C 20,9 km/h (4 Bft)
16.02.2019 12:39 10,9 C 69 % 1021,5 hPa 0,0 l/m 13,8 km/h (3 Bft) S-SW 211 3 min 360 W/m 5,4 C 6,7 C 20,9 km/h (4 Bft)
16.02.2019 12:42 10,9 C 69 % 1021,6 hPa 0,0 l/m 15,7 km/h (3 Bft) S-SW 208 3 min 297 W/m 5,4 C 5,9 C 24,1 km/h (4 Bft)
16.02.2019 12:45 10,9 C 68 % 1021,5 hPa 0,0 l/m 16,5 km/h (3 Bft) S 184 3 min 308 W/m 5,2 C 5,6 C 27,4 km/h (5 Bft)
16.02.2019 12:48 10,9 C 69 % 1021,4 hPa 0,0 l/m 16,8 km/h (3 Bft) S-SW 200 3 min 327 W/m 5,4 C 5,5 C 25,7 km/h (4 Bft)
16.02.2019 12:51 10,9 C 69 % 1021,4 hPa 0,0 l/m 16,1 km/h (3 Bft) S-SW 201 3 min 380 W/m 5,4 C 5,8 C 25,7 km/h (4 Bft)
16.02.2019 12:54 11,1 C 69 % 1021,4 hPa 0,0 l/m 16,1 km/h (3 Bft) SW 227 3 min 396 W/m 5,6 C 6,0 C 24,1 km/h (4 Bft)
16.02.2019 12:57 11,2 C 68 % 1021,4 hPa 0,0 l/m 15,0 km/h (3 Bft) W 263 3 min 373 W/m 5,5 C 6,6 C 25,7 km/h (4 Bft)
16.02.2019 13:00 11,2 C 67 % 1021,4 hPa 0,0 l/m 16,5 km/h (3 Bft) S-SW 213 3 min 343 W/m 5,3 C 6,0 C 24,1 km/h (4 Bft)
16.02.2019 13:03 11,2 C 68 % 1021,5 hPa 0,0 l/m 15,3 km/h (3 Bft) SW 222 3 min 287 W/m 5,5 C 6,5 C 25,7 km/h (4 Bft)
16.02.2019 13:06 11,2 C 68 % 1021,4 hPa 0,0 l/m 17,5 km/h (3 Bft) S 188 3 min 345 W/m 5,5 C 5,7 C 27,4 km/h (5 Bft)
16.02.2019 13:09 11,2 C 68 % 1021,5 hPa 0,0 l/m 15,6 km/h (3 Bft) S-SW 206 3 min 383 W/m 5,5 C 6,4 C 20,9 km/h (4 Bft)
16.02.2019 13:12 11,4 C 68 % 1021,4 hPa 0,0 l/m 13,2 km/h (3 Bft) SW 236 3 min 385 W/m 5,7 C 7,6 C 22,5 km/h (4 Bft)
16.02.2019 13:15 11,6 C 69 % 1021,4 hPa 0,0 l/m 14,6 km/h (3 Bft) SW 230 3 min 381 W/m 6,1 C 7,2 C 22,5 km/h (4 Bft)
16.02.2019 13:18 11,6 C 67 % 1021,4 hPa 0,0 l/m 17,5 km/h (3 Bft) S-SW 207 3 min 346 W/m 5,7 C 6,2 C 27,4 km/h (5 Bft)
16.02.2019 13:21 11,6 C 68 % 1021,4 hPa 0,0 l/m 15,9 km/h (3 Bft) W-SW 238 3 min 353 W/m 5,9 C 6,7 C 24,1 km/h (4 Bft)
16.02.2019 13:24 11,6 C 68 % 1021,5 hPa 0,0 l/m 14,1 km/h (3 Bft) S-SW 204 3 min 350 W/m 5,9 C 7,4 C 27,4 km/h (5 Bft)
16.02.2019 13:27 11,7 C 68 % 1021,4 hPa 0,0 l/m 14,7 km/h (3 Bft) S-SW 207 3 min 338 W/m 6,0 C 7,3 C 24,1 km/h (4 Bft)
16.02.2019 13:30 11,7 C 68 % 1021,4 hPa 0,0 l/m 16,8 km/h (3 Bft) W-SW 243 3 min 311 W/m 6,0 C 6,5 C 25,7 km/h (4 Bft)
16.02.2019 13:33 11,7 C 69 % 1021,4 hPa 0,0 l/m 16,2 km/h (3 Bft) S-SW 196 3 min 301 W/m 6,2 C 6,7 C 20,9 km/h (4 Bft)
16.02.2019 13:36 11,7 C 69 % 1021,4 hPa 0,0 l/m 15,2 km/h (3 Bft) S 182 3 min 302 W/m 6,2 C 7,1 C 29,0 km/h (5 Bft)
16.02.2019 13:39 11,8 C 70 % 1021,4 hPa 0,0 l/m 11,4 km/h (2 Bft) S 184 3 min 311 W/m 6,5 C 8,9 C 17,7 km/h (3 Bft)
16.02.2019 13:42 11,9 C 68 % 1021,3 hPa 0,0 l/m 15,9 km/h (3 Bft) W-SW 243 3 min 311 W/m 6,2 C 7,1 C 22,5 km/h (4 Bft)
16.02.2019 13:45 11,9 C 69 % 1021,3 hPa 0,0 l/m 16,5 km/h (3 Bft) W-SW 239 3 min 287 W/m 6,4 C 6,9 C 25,7 km/h (4 Bft)
16.02.2019 13:48 11,9 C 68 % 1021,3 hPa 0,0 l/m 19,0 km/h (3 Bft) W-SW 239 3 min 264 W/m 6,2 C 6,0 C 25,7 km/h (4 Bft)
16.02.2019 13:51 11,9 C 69 % 1021,2 hPa 0,0 l/m 15,8 km/h (3 Bft) SW 234 3 min 236 W/m 6,4 C 7,1 C 22,5 km/h (4 Bft)
16.02.2019 13:54 11,8 C 68 % 1021,2 hPa 0,0 l/m 16,4 km/h (3 Bft) SW 221 3 min 225 W/m 6,1 C 6,8 C 20,9 km/h (4 Bft)
16.02.2019 13:57 11,8 C 68 % 1021,2 hPa 0,0 l/m 16,0 km/h (3 Bft) W-SW 250 3 min 236 W/m 6,1 C 6,9 C 25,7 km/h (4 Bft)
16.02.2019 14:00 11,8 C 69 % 1021,2 hPa 0,0 l/m 16,7 km/h (3 Bft) S-SW 208 3 min 239 W/m 6,3 C 6,7 C 25,7 km/h (4 Bft)
16.02.2019 14:03 11,8 C 68 % 1021,1 hPa 0,0 l/m 14,5 km/h (3 Bft) S-SW 210 3 min 216 W/m 6,1 C 7,5 C 20,9 km/h (4 Bft)
16.02.2019 14:06 11,8 C 69 % 1021,1 hPa 0,0 l/m 13,3 km/h (3 Bft) W-SW 237 3 min 206 W/m 6,3 C 8,0 C 19,3 km/h (3 Bft)
16.02.2019 14:09 11,9 C 69 % 1021,2 hPa 0,0 l/m 16,2 km/h (3 Bft) S-SW 200 3 min 255 W/m 6,4 C 7,0 C 22,5 km/h (4 Bft)
16.02.2019 14:12 11,9 C 68 % 1021,1 hPa 0,0 l/m 16,9 km/h (3 Bft) SW 227 3 min 279 W/m 6,2 C 6,7 C 24,1 km/h (4 Bft)
16.02.2019 14:15 12,1 C 69 % 1021,1 hPa 0,0 l/m 13,5 km/h (3 Bft) SW 232 3 min 225 W/m 6,6 C 8,3 C 20,9 km/h (4 Bft)
16.02.2019 14:18 12,1 C 69 % 1021,1 hPa 0,0 l/m 15,3 km/h (3 Bft) SW 236 3 min 227 W/m 6,6 C 7,6 C 29,0 km/h (5 Bft)
16.02.2019 14:21 12,1 C 68 % 1021,1 hPa 0,0 l/m 17,7 km/h (3 Bft) SW 224 3 min 271 W/m 6,4 C 6,7 C 27,4 km/h (5 Bft)
16.02.2019 14:24 12,1 C 69 % 1021,0 hPa 0,0 l/m 12,6 km/h (3 Bft) S-SW 200 3 min 287 W/m 6,6 C 8,7 C 19,3 km/h (3 Bft)
16.02.2019 14:27 12,2 C 68 % 1021,0 hPa 0,0 l/m 15,9 km/h (3 Bft) W-SW 239 3 min 279 W/m 6,5 C 7,5 C 22,5 km/h (4 Bft)
16.02.2019 14:30 12,2 C 69 % 1021,0 hPa 0,0 l/m 14,9 km/h (3 Bft) SW 225 3 min 274 W/m 6,7 C 7,8 C 25,7 km/h (4 Bft)
16.02.2019 14:33 12,2 C 69 % 1021,0 hPa 0,0 l/m 13,4 km/h (3 Bft) S-SW 198 3 min 258 W/m 6,7 C 8,4 C 19,3 km/h (3 Bft)
16.02.2019 14:36 12,3 C 69 % 1020,9 hPa 0,0 l/m 14,2 km/h (3 Bft) SW 219 3 min 269 W/m 6,8 C 8,2 C 22,5 km/h (4 Bft)
16.02.2019 14:39 12,3 C 69 % 1020,9 hPa 0,0 l/m 14,7 km/h (3 Bft) S-SW 211 3 min 279 W/m 6,8 C 8,0 C 20,9 km/h (4 Bft)
16.02.2019 14:42 12,3 C 69 % 1021,0 hPa 0,0 l/m 12,3 km/h (2 Bft) SW 215 3 min 274 W/m 6,8 C 9,0 C 17,7 km/h (3 Bft)
16.02.2019 14:45 12,4 C 69 % 1021,0 hPa 0,0 l/m 15,5 km/h (3 Bft) S-SW 211 3 min 253 W/m 6,9 C 7,9 C 27,4 km/h (5 Bft)
16.02.2019 14:48 12,4 C 69 % 1021,0 hPa 0,0 l/m 13,0 km/h (3 Bft) S 169 3 min 227 W/m 6,9 C 8,8 C 17,7 km/h (3 Bft)
16.02.2019 14:51 12,4 C 69 % 1021,1 hPa 0,0 l/m 13,7 km/h (3 Bft) W-SW 240 3 min 229 W/m 6,9 C 8,6 C 19,3 km/h (3 Bft)
16.02.2019 14:54 12,4 C 69 % 1021,1 hPa 0,0 l/m 12,4 km/h (2 Bft) S-SW 205 0 min 146 W/m 6,9 C 9,1 C 19,3 km/h (3 Bft)
16.02.2019 14:57 12,3 C 69 % 1021,0 hPa 0,0 l/m 16,5 km/h (3 Bft) SW 220 3 min 207 W/m 6,8 C 7,4 C 24,1 km/h (4 Bft)
16.02.2019 15:00 12,3 C 70 % 1021,0 hPa 0,0 l/m 13,1 km/h (3 Bft) S-SW 209 3 min 211 W/m 7,0 C 8,7 C 20,9 km/h (4 Bft)
16.02.2019 15:03 12,4 C 70 % 1021,1 hPa 0,0 l/m 12,4 km/h (2 Bft) SW 215 3 min 199 W/m 7,1 C 9,1 C 19,3 km/h (3 Bft)
16.02.2019 15:06 12,4 C 70 % 1021,1 hPa 0,0 l/m 13,9 km/h (3 Bft) SW 214 0 min 146 W/m 7,1 C 8,5 C 24,1 km/h (4 Bft)
16.02.2019 15:09 12,3 C 69 % 1021,2 hPa 0,0 l/m 13,7 km/h (3 Bft) S-SW 207 0 min 137 W/m 6,8 C 8,4 C 17,7 km/h (3 Bft)
16.02.2019 15:12 12,3 C 69 % 1021,2 hPa 0,0 l/m 13,1 km/h (3 Bft) SW 234 0 min 128 W/m 6,8 C 8,7 C 19,3 km/h (3 Bft)
16.02.2019 15:15 12,2 C 70 % 1021,2 hPa 0,0 l/m 13,4 km/h (3 Bft) S-SW 211 3 min 153 W/m 6,9 C 8,4 C 22,5 km/h (4 Bft)
16.02.2019 15:18 12,2 C 70 % 1021,2 hPa 0,0 l/m 15,2 km/h (3 Bft) SW 229 3 min 176 W/m 6,9 C 7,7 C 22,5 km/h (4 Bft)
16.02.2019 15:21 12,3 C 70 % 1021,3 hPa 0,0 l/m 13,2 km/h (3 Bft) SW 222 3 min 176 W/m 7,0 C 8,6 C 20,9 km/h (4 Bft)
16.02.2019 15:24 12,3 C 70 % 1021,2 hPa 0,0 l/m 16,9 km/h (3 Bft) SW 220 0 min 134 W/m 7,0 C 7,2 C 24,1 km/h (4 Bft)
16.02.2019 15:27 12,2 C 70 % 1021,2 hPa 0,0 l/m 14,9 km/h (3 Bft) SW 220 0 min 128 W/m 6,9 C 7,8 C 22,5 km/h (4 Bft)
16.02.2019 15:30 12,2 C 70 % 1021,3 hPa 0,0 l/m 12,2 km/h (2 Bft) SW 227 3 min 149 W/m 6,9 C 9,0 C 17,7 km/h (3 Bft)
16.02.2019 15:33 12,1 C 71 % 1021,3 hPa 0,0 l/m 14,3 km/h (3 Bft) SW 215 3 min 158 W/m 7,0 C 8,0 C 22,5 km/h (4 Bft)
16.02.2019 15:36 12,2 C 71 % 1021,3 hPa 0,0 l/m 11,5 km/h (2 Bft) SW 229 3 min 165 W/m 7,1 C 9,3 C 20,9 km/h (4 Bft)
16.02.2019 15:39 12,2 C 71 % 1021,4 hPa 0,0 l/m 11,4 km/h (2 Bft) W-SW 251 3 min 146 W/m 7,1 C 9,3 C 20,9 km/h (4 Bft)
16.02.2019 15:42 12,2 C 71 % 1021,4 hPa 0,0 l/m 12,2 km/h (2 Bft) S-SW 203 3 min 149 W/m 7,1 C 9,0 C 16,1 km/h (3 Bft)
16.02.2019 15:45 12,3 C 71 % 1021,4 hPa 0,0 l/m 11,1 km/h (2 Bft) SW 232 3 min 128 W/m 7,2 C 9,6 C 20,9 km/h (4 Bft)
16.02.2019 15:48 12,2 C 72 % 1021,4 hPa 0,0 l/m 9,6 km/h (2 Bft) W 270 0 min 120 W/m 7,3 C 10,2 C 14,5 km/h (3 Bft)
16.02.2019 15:51 12,1 C 73 % 1021,4 hPa 0,0 l/m 7,4 km/h (2 Bft) W-SW 248 0 min 104 W/m 7,4 C 11,4 C 11,3 km/h (2 Bft)
16.02.2019 15:54 11,8 C 74 % 1021,4 hPa 0,0 l/m 10,5 km/h (2 Bft) W-SW 254 0 min 97 W/m 7,3 C 9,3 C 19,3 km/h (3 Bft)
16.02.2019 15:57 11,6 C 75 % 1021,4 hPa 0,0 l/m 12,3 km/h (2 Bft) SW 224 0 min 95 W/m 7,3 C 8,2 C 20,9 km/h (4 Bft)
16.02.2019 16:00 11,4 C 75 % 1021,3 hPa 0,0 l/m 9,8 km/h (2 Bft) SW 225 0 min 86 W/m 7,1 C 9,3 C 19,3 km/h (3 Bft)
16.02.2019 16:03 11,3 C 75 % 1021,4 hPa 0,0 l/m 9,1 km/h (2 Bft) SW 215 0 min 86 W/m 7,0 C 9,5 C 17,7 km/h (3 Bft)
16.02.2019 16:06 11,2 C 76 % 1021,4 hPa 0,0 l/m 10,2 km/h (2 Bft) W-SW 246 0 min 76 W/m 7,1 C 8,8 C 19,3 km/h (3 Bft)
16.02.2019 16:09 11,2 C 76 % 1021,4 hPa 0,0 l/m 7,2 km/h (2 Bft) W-SW 240 0 min 72 W/m 7,1 C 10,6 C 14,5 km/h (3 Bft)
16.02.2019 16:12 11,2 C 76 % 1021,4 hPa 0,0 l/m 7,4 km/h (2 Bft) W-SW 240 0 min 76 W/m 7,1 C 10,5 C 16,1 km/h (3 Bft)
16.02.2019 16:15 11,1 C 76 % 1021,5 hPa 0,0 l/m 6,7 km/h (2 Bft) W-NW 284 0 min 67 W/m 7,0 C 10,9 C 11,3 km/h (2 Bft)
16.02.2019 16:18 11,0 C 76 % 1021,5 hPa 0,0 l/m 8,4 km/h (2 Bft) W-SW 254 0 min 58 W/m 6,9 C 9,6 C 12,9 km/h (3 Bft)
16.02.2019 16:21 10,9 C 77 % 1021,5 hPa 0,0 l/m 6,4 km/h (2 Bft) W 259 0 min 53 W/m 7,0 C 10,9 C 12,9 km/h (3 Bft)
16.02.2019 16:24 10,8 C 77 % 1021,5 hPa 0,0 l/m 7,6 km/h (2 Bft) W-SW 257 0 min 53 W/m 6,9 C 10,0 C 12,9 km/h (3 Bft)
16.02.2019 16:27 10,7 C 77 % 1021,5 hPa 0,0 l/m 8,0 km/h (2 Bft) W-SW 257 0 min 53 W/m 6,8 C 9,6 C 8,0 km/h (2 Bft)
16.02.2019 16:30 10,6 C 78 % 1021,5 hPa 0,0 l/m 8,0 km/h (2 Bft) W-SW 257 0 min 51 W/m 6,9 C 9,5 C 8,0 km/h (2 Bft)
16.02.2019 16:33 10,5 C 78 % 1021,4 hPa 0,0 l/m 8,0 km/h (2 Bft) W-SW 257 0 min 49 W/m 6,8 C 9,4 C 8,0 km/h (2 Bft)
16.02.2019 16:36 10,3 C 79 % 1021,5 hPa 0,0 l/m 8,0 km/h (2 Bft) N 0 0 min 46 W/m 6,8 C 9,2 C 8,0 km/h (2 Bft)
16.02.2019 16:39 10,2 C 80 % 1021,5 hPa 0,0 l/m 8,0 km/h (2 Bft) N 0 0 min 40 W/m 6,9 C 9,1 C 8,0 km/h (2 Bft)
16.02.2019 16:42 10,1 C 80 % 1021,6 hPa 0,0 l/m 8,0 km/h (2 Bft) N 0 0 min 39 W/m 6,8 C 9,0 C 8,0 km/h (2 Bft)
16.02.2019 16:45 9,9 C 81 % 1021,6 hPa 0,0 l/m 8,0 km/h (2 Bft) N 0 0 min 33 W/m 6,8 C 8,7 C 8,0 km/h (2 Bft)
16.02.2019 16:48 9,8 C 81 % 1021,6 hPa 0,0 l/m 8,0 km/h (2 Bft) N 0 0 min 30 W/m 6,7 C 8,6 C 8,0 km/h (2 Bft)
16.02.2019 16:51 9,8 C 81 % 1021,5 hPa 0,0 l/m 8,0 km/h (2 Bft) N 0 0 min 26 W/m 6,7 C 8,6 C 8,0 km/h (2 Bft)
16.02.2019 16:54 9,7 C 82 % 1021,6 hPa 0,0 l/m 8,0 km/h (2 Bft) N 0 0 min 26 W/m 6,8 C 8,5 C 8,0 km/h (2 Bft)
16.02.2019 16:57 9,6 C 82 % 1021,6 hPa 0,0 l/m 8,0 km/h (2 Bft) N 0 0 min 25 W/m 6,7 C 8,4 C 8,0 km/h (2 Bft)
16.02.2019 17:00 9,6 C 82 % 1021,6 hPa 0,0 l/m 8,0 km/h (2 Bft) N 0 0 min 21 W/m 6,7 C 8,4 C 8,0 km/h (2 Bft)
16.02.2019 17:03 9,5 C 82 % 1021,6 hPa 0,0 l/m 8,0 km/h (2 Bft) N 0 0 min 19 W/m 6,6 C 8,3 C 8,0 km/h (2 Bft)
16.02.2019 17:06 9,4 C 83 % 1021,5 hPa 0,0 l/m 8,0 km/h (2 Bft) N 0 0 min 16 W/m 6,7 C 8,2 C 8,0 km/h (2 Bft)
16.02.2019 17:09 9,4 C 83 % 1021,5 hPa 0,0 l/m 8,0 km/h (2 Bft) N 0 0 min 11 W/m 6,7 C 8,2 C 8,0 km/h (2 Bft)
16.02.2019 17:12 9,3 C 83 % 1021,6 hPa 0,0 l/m 8,0 km/h (2 Bft) N 0 0 min 7 W/m 6,6 C 8,1 C 8,0 km/h (2 Bft)
16.02.2019 17:15 9,3 C 83 % 1021,5 hPa 0,0 l/m 8,0 km/h (2 Bft) N 0 0 min 5 W/m 6,6 C 8,1 C 8,0 km/h (2 Bft)
16.02.2019 17:18 9,3 C 83 % 1021,5 hPa 0,0 l/m 8,0 km/h (2 Bft) N 0 0 min 5 W/m 6,6 C 8,1 C 8,0 km/h (2 Bft)
16.02.2019 17:21 9,3 C 83 % 1021,6 hPa 0,0 l/m 8,0 km/h (2 Bft) N 0 0 min 0 W/m 6,6 C 8,1 C 8,0 km/h (2 Bft)
16.02.2019 17:24 9,3 C 84 % 1021,6 hPa 0,0 l/m 8,0 km/h (2 Bft) N 0 0 min 0 W/m 6,7 C 8,1 C 8,0 km/h (2 Bft)
16.02.2019 17:27 9,2 C 84 % 1021,5 hPa 0,0 l/m 8,0 km/h (2 Bft) N 0 0 min 0 W/m 6,6 C 8,0 C 8,0 km/h (2 Bft)
16.02.2019 17:30 9,2 C 84 % 1021,5 hPa 0,0 l/m 8,0 km/h (2 Bft) N 0 0 min 0 W/m 6,6 C 8,0 C 8,0 km/h (2 Bft)
16.02.2019 17:33 9,2 C 84 % 1021,5 hPa 0,0 l/m 8,0 km/h (2 Bft) N 0 0 min 0 W/m 6,6 C 8,0 C 8,0 km/h (2 Bft)
16.02.2019 17:36 9,2 C 84 % 1021,5 hPa 0,0 l/m 8,0 km/h (2 Bft) N 0 0 min 0 W/m 6,6 C 8,0 C 8,0 km/h (2 Bft)
16.02.2019 17:39 9,2 C 84 % 1021,5 hPa 0,0 l/m 8,0 km/h (2 Bft) N 0 0 min 0 W/m 6,6 C 8,0 C 8,0 km/h (2 Bft)
16.02.2019 17:42 9,3 C 84 % 1021,5 hPa 0,0 l/m 8,0 km/h (2 Bft) N 0 0 min 0 W/m 6,7 C 8,1 C 8,0 km/h (2 Bft)
16.02.2019 17:45 9,3 C 84 % 1021,5 hPa 0,0 l/m 8,0 km/h (2 Bft) N 0 0 min 0 W/m 6,7 C 8,1 C 8,0 km/h (2 Bft)
16.02.2019 17:48 9,3 C 84 % 1021,5 hPa 0,0 l/m 8,0 km/h (2 Bft) N 0 0 min 0 W/m 6,7 C 8,1 C 8,0 km/h (2 Bft)
16.02.2019 17:51 9,4 C 84 % 1021,6 hPa 0,0 l/m 8,0 km/h (2 Bft) N 0 0 min 0 W/m 6,8 C 8,2 C 8,0 km/h (2 Bft)
16.02.2019 17:54 9,4 C 84 % 1021,6 hPa 0,0 l/m 8,0 km/h (2 Bft) N 0 0 min 0 W/m 6,8 C 8,2 C 8,0 km/h (2 Bft)
16.02.2019 17:57 9,5 C 83 % 1021,6 hPa 0,0 l/m 8,0 km/h (2 Bft) N 0 0 min 0 W/m 6,8 C 8,3 C 8,0 km/h (2 Bft)
16.02.2019 18:00 9,6 C 83 % 1021,7 hPa 0,0 l/m 6,8 km/h (2 Bft) SW 229 0 min 0 W/m 6,9 C 9,3 C 11,3 km/h (2 Bft)
16.02.2019 18:03 9,6 C 83 % 1021,7 hPa 0,0 l/m 8,3 km/h (2 Bft) SW 232 0 min 0 W/m 6,9 C 8,2 C 14,5 km/h (3 Bft)
16.02.2019 18:06 9,7 C 83 % 1021,7 hPa 0,0 l/m 8,1 km/h (2 Bft) SW 232 0 min 0 W/m 7,0 C 8,5 C 12,9 km/h (3 Bft)
16.02.2019 18:09 9,7 C 83 % 1021,8 hPa 0,0 l/m 5,7 km/h (2 Bft) SW 232 0 min 0 W/m 7,0 C 9,7 C 9,7 km/h (2 Bft)
16.02.2019 18:12 9,7 C 82 % 1021,8 hPa 0,0 l/m 6,7 km/h (2 Bft) SW 231 0 min 0 W/m 6,8 C 9,5 C 11,3 km/h (2 Bft)
16.02.2019 18:15 9,7 C 82 % 1021,8 hPa 0,0 l/m 6,6 km/h (2 Bft) W-SW 242 0 min 0 W/m 6,8 C 9,6 C 12,9 km/h (3 Bft)
16.02.2019 18:18 9,7 C 82 % 1021,8 hPa 0,0 l/m 7,0 km/h (2 Bft) W-SW 243 0 min 0 W/m 6,8 C 9,3 C 12,9 km/h (3 Bft)
16.02.2019 18:21 9,7 C 82 % 1021,7 hPa 0,0 l/m 8,4 km/h (2 Bft) W-SW 238 0 min 0 W/m 6,8 C 8,3 C 14,5 km/h (3 Bft)
16.02.2019 18:24 9,7 C 82 % 1021,8 hPa 0,0 l/m 8,5 km/h (2 Bft) SW 235 0 min 0 W/m 6,8 C 8,2 C 12,9 km/h (3 Bft)
16.02.2019 18:27 9,8 C 82 % 1021,8 hPa 0,0 l/m 6,7 km/h (2 Bft) SW 236 0 min 0 W/m 6,9 C 9,6 C 11,3 km/h (2 Bft)
16.02.2019 18:30 9,8 C 82 % 1021,8 hPa 0,0 l/m 8,4 km/h (2 Bft) SW 235 0 min 0 W/m 6,9 C 8,4 C 11,3 km/h (2 Bft)
16.02.2019 18:33 9,8 C 83 % 1021,8 hPa 0,0 l/m 6,1 km/h (2 Bft) SW 235 0 min 0 W/m 7,1 C 9,8 C 9,7 km/h (2 Bft)
16.02.2019 18:36 9,8 C 83 % 1021,9 hPa 0,0 l/m 6,5 km/h (2 Bft) SW 235 0 min 0 W/m 7,1 C 9,8 C 9,7 km/h (2 Bft)
16.02.2019 18:39 9,8 C 82 % 1021,9 hPa 0,0 l/m 5,7 km/h (2 Bft) SW 235 0 min 0 W/m 6,9 C 9,8 C 8,0 km/h (2 Bft)
16.02.2019 18:42 9,8 C 83 % 1021,9 hPa 0,0 l/m 6,4 km/h (2 Bft) SW 235 0 min 0 W/m 7,1 C 9,8 C 9,7 km/h (2 Bft)
16.02.2019 18:45 9,8 C 83 % 1021,9 hPa 0,0 l/m 4,9 km/h (1 Bft) SW 235 0 min 0 W/m 7,1 C 9,8 C 8,0 km/h (2 Bft)
16.02.2019 18:48 9,8 C 83 % 1021,9 hPa 0,0 l/m 4,6 km/h (1 Bft) SW 235 0 min 0 W/m 7,1 C 9,8 C 8,0 km/h (2 Bft)
16.02.2019 18:51 9,7 C 83 % 1021,9 hPa 0,0 l/m 4,4 km/h (1 Bft) SW 235 0 min 0 W/m 7,0 C 9,7 C 8,0 km/h (2 Bft)
16.02.2019 18:54 9,7 C 83 % 1021,9 hPa 0,0 l/m 5,7 km/h (2 Bft) SW 235 0 min 0 W/m 7,0 C 9,7 C 8,0 km/h (2 Bft)
16.02.2019 18:57 9,7 C 83 % 1021,9 hPa 0,0 l/m 4,7 km/h (1 Bft) SW 235 0 min 0 W/m 7,0 C 9,7 C 6,4 km/h (2 Bft)
16.02.2019 19:00 9,8 C 83 % 1021,9 hPa 0,0 l/m 6,4 km/h (2 Bft) SW 235 0 min 0 W/m 7,1 C 9,8 C 9,7 km/h (2 Bft)
16.02.2019 19:03 9,7 C 83 % 1021,9 hPa 0,0 l/m 6,2 km/h (2 Bft) SW 235 0 min 0 W/m 7,0 C 9,7 C 11,3 km/h (2 Bft)
16.02.2019 19:06 9,7 C 83 % 1021,9 hPa 0,0 l/m 5,6 km/h (2 Bft) SW 235 0 min 0 W/m 7,0 C 9,7 C 8,0 km/h (2 Bft)
16.02.2019 19:09 9,8 C 83 % 1021,9 hPa 0,0 l/m 6,2 km/h (2 Bft) SW 235 0 min 0 W/m 7,1 C 9,8 C 9,7 km/h (2 Bft)
16.02.2019 19:12 9,8 C 83 % 1021,9 hPa 0,0 l/m 5,1 km/h (1 Bft) SW 235 0 min 0 W/m 7,1 C 9,8 C 8,0 km/h (2 Bft)
16.02.2019 19:15 9,8 C 83 % 1021,9 hPa 0,0 l/m 5,5 km/h (2 Bft) SW 235 0 min 0 W/m 7,1 C 9,8 C 9,7 km/h (2 Bft)
16.02.2019 19:18 9,8 C 83 % 1021,9 hPa 0,0 l/m 5,3 km/h (1 Bft) SW 235 0 min 0 W/m 7,1 C 9,8 C 9,7 km/h (2 Bft)
16.02.2019 19:21 9,8 C 83 % 1021,9 hPa 0,0 l/m 3,7 km/h (1 Bft) SW 235 0 min 0 W/m 7,1 C 9,8 C 6,4 km/h (2 Bft)
16.02.2019 19:24 9,8 C 83 % 1021,9 hPa 0,0 l/m 4,1 km/h (1 Bft) SW 235 0 min 0 W/m 7,1 C 9,8 C 6,4 km/h (2 Bft)
16.02.2019 19:27 9,8 C 83 % 1021,8 hPa 0,0 l/m 4,5 km/h (1 Bft) SW 235 0 min 0 W/m 7,1 C 9,8 C 8,0 km/h (2 Bft)
16.02.2019 19:30 9,8 C 83 % 1021,8 hPa 0,0 l/m 5,0 km/h (1 Bft) SW 234 0 min 0 W/m 7,1 C 9,8 C 8,0 km/h (2 Bft)
16.02.2019 19:33 9,8 C 83 % 1021,9 hPa 0,0 l/m 5,0 km/h (1 Bft) SW 234 0 min 0 W/m 7,1 C 9,8 C 9,7 km/h (2 Bft)
16.02.2019 19:36 9,8 C 83 % 1021,9 hPa 0,0 l/m 4,4 km/h (1 Bft) SW 234 0 min 0 W/m 7,1 C 9,8 C 6,4 km/h (2 Bft)
16.02.2019 19:39 9,8 C 83 % 1021,9 hPa 0,0 l/m 4,8 km/h (1 Bft) SW 234 0 min 0 W/m 7,1 C 9,8 C 6,4 km/h (2 Bft)
16.02.2019 19:42 9,8 C 83 % 1021,9 hPa 0,0 l/m 4,5 km/h (1 Bft) SW 234 0 min 0 W/m 7,1 C 9,8 C 6,4 km/h (2 Bft)
16.02.2019 19:45 9,7 C 83 % 1021,9 hPa 0,0 l/m 4,8 km/h (1 Bft) SW 234 0 min 0 W/m 7,0 C 9,7 C 6,4 km/h (2 Bft)
16.02.2019 19:48 9,7 C 83 % 1021,9 hPa 0,0 l/m 5,3 km/h (1 Bft) SW 234 0 min 0 W/m 7,0 C 9,7 C 9,7 km/h (2 Bft)
16.02.2019 19:51 9,7 C 83 % 1021,9 hPa 0,0 l/m 5,6 km/h (2 Bft) SW 234 0 min 0 W/m 7,0 C 9,7 C 9,7 km/h (2 Bft)
16.02.2019 19:54 9,7 C 83 % 1021,9 hPa 0,0 l/m 6,3 km/h (2 Bft) SW 234 0 min 0 W/m 7,0 C 9,7 C 11,3 km/h (2 Bft)
16.02.2019 19:57 9,7 C 83 % 1021,9 hPa 0,0 l/m 5,4 km/h (2 Bft) SW 234 0 min 0 W/m 7,0 C 9,7 C 9,7 km/h (2 Bft)
16.02.2019 20:00 9,8 C 83 % 1021,9 hPa 0,0 l/m 6,5 km/h (2 Bft) SW 234 0 min 0 W/m 7,1 C 9,8 C 9,7 km/h (2 Bft)
16.02.2019 20:03 9,8 C 83 % 1021,9 hPa 0,0 l/m 7,4 km/h (2 Bft) SW 234 0 min 0 W/m 7,1 C 9,1 C 9,7 km/h (2 Bft)
16.02.2019 20:06 9,8 C 83 % 1021,9 hPa 0,0 l/m 6,3 km/h (2 Bft) SW 234 0 min 0 W/m 7,1 C 9,8 C 9,7 km/h (2 Bft)
16.02.2019 20:09 9,9 C 83 % 1021,9 hPa 0,0 l/m 7,8 km/h (2 Bft) SW 233 0 min 0 W/m 7,2 C 8,9 C 11,3 km/h (2 Bft)
16.02.2019 20:12 9,9 C 83 % 1021,9 hPa 0,0 l/m 8,0 km/h (2 Bft) SW 233 0 min 0 W/m 7,2 C 8,7 C 12,9 km/h (3 Bft)
16.02.2019 20:15 10,0 C 83 % 1021,8 hPa 0,0 l/m 6,0 km/h (2 Bft) SW 232 0 min 0 W/m 7,2 C 10,0 C 9,7 km/h (2 Bft)
16.02.2019 20:18 10,0 C 82 % 1021,9 hPa 0,0 l/m 7,5 km/h (2 Bft) SW 231 0 min 0 W/m 7,1 C 9,2 C 11,3 km/h (2 Bft)
16.02.2019 20:21 10,1 C 82 % 1021,9 hPa 0,0 l/m 7,6 km/h (2 Bft) SW 232 0 min 0 W/m 7,2 C 9,2 C 11,3 km/h (2 Bft)
16.02.2019 20:24 10,1 C 82 % 1021,8 hPa 0,0 l/m 7,3 km/h (2 Bft) SW 228 0 min 0 W/m 7,2 C 9,4 C 11,3 km/h (2 Bft)
16.02.2019 20:27 10,1 C 82 % 1021,8 hPa 0,0 l/m 7,6 km/h (2 Bft) S-SW 197 0 min 0 W/m 7,2 C 9,2 C 12,9 km/h (3 Bft)
16.02.2019 20:30 10,1 C 82 % 1021,8 hPa 0,0 l/m 8,0 km/h (2 Bft) SW 218 0 min 0 W/m 7,2 C 9,0 C 12,9 km/h (3 Bft)
16.02.2019 20:33 10,2 C 82 % 1021,8 hPa 0,0 l/m 7,1 km/h (2 Bft) S-SW 211 0 min 0 W/m 7,3 C 9,7 C 11,3 km/h (2 Bft)
16.02.2019 20:36 10,2 C 82 % 1021,8 hPa 0,0 l/m 7,7 km/h (2 Bft) SW 226 0 min 0 W/m 7,3 C 9,3 C 14,5 km/h (3 Bft)
16.02.2019 20:39 10,2 C 81 % 1021,8 hPa 0,0 l/m 9,0 km/h (2 Bft) SW 221 0 min 0 W/m 7,1 C 8,4 C 14,5 km/h (3 Bft)
16.02.2019 20:42 10,3 C 81 % 1021,8 hPa 0,0 l/m 8,7 km/h (2 Bft) SW 219 0 min 0 W/m 7,2 C 8,7 C 16,1 km/h (3 Bft)
16.02.2019 20:45 10,3 C 81 % 1021,8 hPa 0,0 l/m 9,1 km/h (2 Bft) SW 220 0 min 0 W/m 7,2 C 8,5 C 14,5 km/h (3 Bft)
16.02.2019 20:48 10,3 C 81 % 1021,8 hPa 0,0 l/m 10,0 km/h (2 Bft) SW 221 0 min 0 W/m 7,2 C 7,9 C 14,5 km/h (3 Bft)
16.02.2019 20:51 10,4 C 81 % 1021,8 hPa 0,0 l/m 11,1 km/h (2 Bft) SW 225 0 min 0 W/m 7,3 C 7,4 C 16,1 km/h (3 Bft)
16.02.2019 20:54 10,4 C 81 % 1021,8 hPa 0,0 l/m 10,9 km/h (2 Bft) W-SW 240 0 min 0 W/m 7,3 C 7,5 C 16,1 km/h (3 Bft)
16.02.2019 20:57 10,4 C 80 % 1021,8 hPa 0,0 l/m 12,2 km/h (2 Bft) S-SW 197 0 min 0 W/m 7,1 C 6,9 C 17,7 km/h (3 Bft)
16.02.2019 21:00 10,4 C 80 % 1021,8 hPa 0,0 l/m 12,9 km/h (3 Bft) SW 221 0 min 0 W/m 7,1 C 6,5 C 17,7 km/h (3 Bft)
16.02.2019 21:03 10,5 C 80 % 1021,9 hPa 0,0 l/m 12,0 km/h (2 Bft) SW 221 0 min 0 W/m 7,2 C 7,1 C 19,3 km/h (3 Bft)
16.02.2019 21:06 10,5 C 80 % 1021,9 hPa 0,0 l/m 10,7 km/h (2 Bft) SW 225 0 min 0 W/m 7,2 C 7,8 C 16,1 km/h (3 Bft)
16.02.2019 21:09 10,5 C 80 % 1021,8 hPa 0,0 l/m 10,6 km/h (2 Bft) SW 224 0 min 0 W/m 7,2 C 7,8 C 16,1 km/h (3 Bft)
16.02.2019 21:12 10,5 C 80 % 1021,8 hPa 0,0 l/m 9,8 km/h (2 Bft) S-SW 213 0 min 0 W/m 7,2 C 8,3 C 12,9 km/h (3 Bft)
16.02.2019 21:15 10,5 C 80 % 1021,9 hPa 0,0 l/m 11,1 km/h (2 Bft) S-SW 213 0 min 0 W/m 7,2 C 7,5 C 17,7 km/h (3 Bft)
16.02.2019 21:18 10,5 C 80 % 1021,8 hPa 0,0 l/m 11,1 km/h (2 Bft) SW 230 0 min 0 W/m 7,2 C 7,5 C 16,1 km/h (3 Bft)
16.02.2019 21:21 10,4 C 80 % 1021,8 hPa 0,0 l/m 11,0 km/h (2 Bft) SW 214 0 min 0 W/m 7,1 C 7,5 C 17,7 km/h (3 Bft)
16.02.2019 21:24 10,4 C 80 % 1021,8 hPa 0,0 l/m 11,7 km/h (2 Bft) SW 222 0 min 0 W/m 7,1 C 7,1 C 22,5 km/h (4 Bft)
16.02.2019 21:27 10,4 C 80 % 1021,8 hPa 0,0 l/m 11,6 km/h (2 Bft) SW 223 0 min 0 W/m 7,1 C 7,2 C 20,9 km/h (4 Bft)
16.02.2019 21:30 10,4 C 80 % 1021,9 hPa 0,0 l/m 10,2 km/h (2 Bft) SW 227 0 min 0 W/m 7,1 C 7,9 C 17,7 km/h (3 Bft)
16.02.2019 21:33 10,4 C 81 % 1022,0 hPa 0,0 l/m 11,2 km/h (2 Bft) SW 227 0 min 0 W/m 7,3 C 7,4 C 17,7 km/h (3 Bft)
16.02.2019 21:36 10,4 C 81 % 1022,0 hPa 0,0 l/m 11,4 km/h (2 Bft) SW 219 0 min 0 W/m 7,3 C 7,3 C 17,7 km/h (3 Bft)
16.02.2019 21:39 10,4 C 81 % 1022,0 hPa 0,0 l/m 11,6 km/h (2 Bft) SW 223 0 min 0 W/m 7,3 C 7,2 C 20,9 km/h (4 Bft)
16.02.2019 21:42 10,4 C 81 % 1021,9 hPa 0,0 l/m 12,2 km/h (2 Bft) S-SW 205 0 min 0 W/m 7,3 C 6,9 C 17,7 km/h (3 Bft)
16.02.2019 21:45 10,4 C 81 % 1021,9 hPa 0,0 l/m 13,0 km/h (3 Bft) S-SW 211 0 min 0 W/m 7,3 C 6,5 C 22,5 km/h (4 Bft)
16.02.2019 21:48 10,4 C 81 % 1021,9 hPa 0,0 l/m 10,5 km/h (2 Bft) SW 218 0 min 0 W/m 7,3 C 7,8 C 16,1 km/h (3 Bft)
16.02.2019 21:51 10,4 C 81 % 1021,9 hPa 0,0 l/m 10,2 km/h (2 Bft) S-SW 212 0 min 0 W/m 7,3 C 7,9 C 14,5 km/h (3 Bft)
16.02.2019 21:54 10,4 C 81 % 1021,9 hPa 0,0 l/m 11,2 km/h (2 Bft) SW 234 0 min 0 W/m 7,3 C 7,4 C 17,7 km/h (3 Bft)
16.02.2019 21:57 10,4 C 81 % 1021,9 hPa 0,0 l/m 9,6 km/h (2 Bft) SW 214 0 min 0 W/m 7,3 C 8,3 C 16,1 km/h (3 Bft)
16.02.2019 22:00 10,3 C 81 % 1021,9 hPa 0,0 l/m 11,1 km/h (2 Bft) S 190 0 min 0 W/m 7,2 C 7,3 C 17,7 km/h (3 Bft)
16.02.2019 22:03 10,3 C 81 % 1021,9 hPa 0,0 l/m 10,0 km/h (2 Bft) SW 217 0 min 0 W/m 7,2 C 7,9 C 17,7 km/h (3 Bft)
16.02.2019 22:06 10,3 C 81 % 1021,9 hPa 0,0 l/m 13,3 km/h (3 Bft) SW 219 0 min 0 W/m 7,2 C 6,2 C 19,3 km/h (3 Bft)
16.02.2019 22:09 10,3 C 81 % 1021,8 hPa 0,0 l/m 10,4 km/h (2 Bft) SW 234 0 min 0 W/m 7,2 C 7,7 C 17,7 km/h (3 Bft)
16.02.2019 22:12 10,3 C 81 % 1021,9 hPa 0,0 l/m 13,4 km/h (3 Bft) SW 223 0 min 0 W/m 7,2 C 6,2 C 19,3 km/h (3 Bft)
16.02.2019 22:15 10,3 C 81 % 1021,8 hPa 0,0 l/m 12,8 km/h (3 Bft) S-SW 204 0 min 0 W/m 7,2 C 6,5 C 20,9 km/h (4 Bft)
16.02.2019 22:18 10,3 C 81 % 1021,8 hPa 0,0 l/m 14,0 km/h (3 Bft) SW 220 0 min 0 W/m 7,2 C 5,9 C 19,3 km/h (3 Bft)
16.02.2019 22:21 10,2 C 82 % 1021,8 hPa 0,0 l/m 12,5 km/h (2 Bft) S-SW 212 0 min 0 W/m 7,3 C 6,5 C 19,3 km/h (3 Bft)
16.02.2019 22:24 10,2 C 82 % 1021,8 hPa 0,0 l/m 12,7 km/h (3 Bft) SW 223 0 min 0 W/m 7,3 C 6,4 C 17,7 km/h (3 Bft)
16.02.2019 22:27 10,2 C 82 % 1021,8 hPa 0,0 l/m 12,3 km/h (2 Bft) SW 226 0 min 0 W/m 7,3 C 6,6 C 20,9 km/h (4 Bft)
16.02.2019 22:30 10,2 C 82 % 1021,8 hPa 0,0 l/m 11,2 km/h (2 Bft) SW 236 0 min 0 W/m 7,3 C 7,2 C 17,7 km/h (3 Bft)
16.02.2019 22:33 10,2 C 82 % 1021,8 hPa 0,0 l/m 12,4 km/h (2 Bft) W-SW 249 0 min 0 W/m 7,3 C 6,5 C 17,7 km/h (3 Bft)
16.02.2019 22:36 10,3 C 83 % 1021,8 hPa 0,0 l/m 10,1 km/h (2 Bft) SW 236 0 min 0 W/m 7,5 C 7,9 C 14,5 km/h (3 Bft)
16.02.2019 22:39 10,3 C 83 % 1021,9 hPa 0,0 l/m 11,6 km/h (2 Bft) SW 221 0 min 0 W/m 7,5 C 7,1 C 20,9 km/h (4 Bft)
16.02.2019 22:42 10,3 C 83 % 1021,9 hPa 0,0 l/m 14,0 km/h (3 Bft) S-SW 198 0 min 0 W/m 7,5 C 5,9 C 19,3 km/h (3 Bft)
16.02.2019 22:45 10,3 C 83 % 1021,8 hPa 0,0 l/m 15,0 km/h (3 Bft) W-SW 250 0 min 0 W/m 7,5 C 5,5 C 22,5 km/h (4 Bft)
16.02.2019 22:48 10,4 C 83 % 1021,7 hPa 0,0 l/m 14,7 km/h (3 Bft) W-SW 239 0 min 0 W/m 7,6 C 5,7 C 25,7 km/h (4 Bft)
16.02.2019 22:51 10,4 C 83 % 1021,7 hPa 0,0 l/m 12,9 km/h (3 Bft) W-SW 244 0 min 0 W/m 7,6 C 6,5 C 19,3 km/h (3 Bft)
16.02.2019 22:54 10,4 C 83 % 1021,7 hPa 0,0 l/m 14,3 km/h (3 Bft) SW 231 0 min 0 W/m 7,6 C 5,9 C 20,9 km/h (4 Bft)
16.02.2019 22:57 10,4 C 83 % 1021,8 hPa 0,0 l/m 15,2 km/h (3 Bft) SW 232 0 min 0 W/m 7,6 C 5,5 C 19,3 km/h (3 Bft)
16.02.2019 23:00 10,4 C 83 % 1021,8 hPa 0,0 l/m 15,2 km/h (3 Bft) W-SW 243 0 min 0 W/m 7,6 C 5,5 C 20,9 km/h (4 Bft)
16.02.2019 23:03 10,4 C 83 % 1021,8 hPa 0,0 l/m 14,5 km/h (3 Bft) SW 229 0 min 0 W/m 7,6 C 5,8 C 20,9 km/h (4 Bft)
16.02.2019 23:06 10,4 C 83 % 1021,8 hPa 0,0 l/m 13,7 km/h (3 Bft) SW 220 0 min 0 W/m 7,6 C 6,2 C 19,3 km/h (3 Bft)
16.02.2019 23:09 10,4 C 83 % 1021,7 hPa 0,0 l/m 14,8 km/h (3 Bft) S-SW 209 0 min 0 W/m 7,6 C 5,7 C 20,9 km/h (4 Bft)
16.02.2019 23:12 10,4 C 83 % 1021,8 hPa 0,0 l/m 15,7 km/h (3 Bft) SW 225 0 min 0 W/m 7,6 C 5,3 C 20,9 km/h (4 Bft)
16.02.2019 23:15 10,4 C 83 % 1021,8 hPa 0,0 l/m 14,3 km/h (3 Bft) SW 229 0 min 0 W/m 7,6 C 5,9 C 22,5 km/h (4 Bft)
16.02.2019 23:18 10,4 C 83 % 1021,9 hPa 0,0 l/m 14,6 km/h (3 Bft) SW 222 0 min 0 W/m 7,6 C 5,8 C 22,5 km/h (4 Bft)
16.02.2019 23:21 10,4 C 83 % 1021,9 hPa 0,0 l/m 14,7 km/h (3 Bft) SW 232 0 min 0 W/m 7,6 C 5,7 C 20,9 km/h (4 Bft)
16.02.2019 23:24 10,4 C 83 % 1021,9 hPa 0,0 l/m 15,3 km/h (3 Bft) SW 221 0 min 0 W/m 7,6 C 5,5 C 22,5 km/h (4 Bft)
16.02.2019 23:27 10,4 C 83 % 1022,0 hPa 0,0 l/m 14,1 km/h (3 Bft) S-SW 205 0 min 0 W/m 7,6 C 6,0 C 25,7 km/h (4 Bft)
16.02.2019 23:30 10,5 C 83 % 1021,9 hPa 0,0 l/m 13,8 km/h (3 Bft) SW 229 0 min 0 W/m 7,7 C 6,3 C 20,9 km/h (4 Bft)
16.02.2019 23:33 10,6 C 84 % 1022,0 hPa 0,0 l/m 13,0 km/h (3 Bft) SW 236 0 min 0 W/m 8,0 C 6,7 C 19,3 km/h (3 Bft)
16.02.2019 23:36 10,6 C 84 % 1022,0 hPa 0,0 l/m 15,5 km/h (3 Bft) SW 215 0 min 0 W/m 8,0 C 5,7 C 24,1 km/h (4 Bft)
16.02.2019 23:39 10,7 C 84 % 1021,9 hPa 0,0 l/m 14,8 km/h (3 Bft) W-SW 255 0 min 0 W/m 8,1 C 6,1 C 24,1 km/h (4 Bft)
16.02.2019 23:42 10,7 C 84 % 1021,9 hPa 0,0 l/m 15,1 km/h (3 Bft) SW 217 0 min 0 W/m 8,1 C 5,9 C 24,1 km/h (4 Bft)
16.02.2019 23:45 10,7 C 83 % 1021,9 hPa 0,0 l/m 14,7 km/h (3 Bft) SW 225 0 min 0 W/m 7,9 C 6,1 C 20,9 km/h (4 Bft)
16.02.2019 23:48 10,7 C 83 % 1021,9 hPa 0,0 l/m 14,0 km/h (3 Bft) W-SW 243 0 min 0 W/m 7,9 C 6,4 C 22,5 km/h (4 Bft)
16.02.2019 23:51 10,7 C 83 % 1021,9 hPa 0,0 l/m 11,4 km/h (2 Bft) SW 236 0 min 0 W/m 7,9 C 7,6 C 16,1 km/h (3 Bft)
16.02.2019 23:54 10,7 C 83 % 1021,9 hPa 0,0 l/m 12,6 km/h (3 Bft) SW 220 0 min 0 W/m 7,9 C 7,0 C 20,9 km/h (4 Bft)
16.02.2019 23:57 10,6 C 83 % 1021,9 hPa 0,0 l/m 10,0 km/h (2 Bft) SW 229 0 min 0 W/m 7,8 C 8,3 C 14,5 km/h (3 Bft)
_ Min-Zeit 01:27 13:00 14:36 - 01:06 - - - - 01:18 09:21 01:09
Minimum _ 4,3 C 67 % 1020,9 hPa - 2,3 km/h (1 Bft) - - - - 0,9 C 0,5 C 3,2 km/h (1 Bft)
_ Max-Zeit 14:45 17:24 00:00 00:00 10:39 - - 10:57 12:15 23:39 15:51 09:54
Maximum _ 12,4 C 84 % 1024,2 hPa 0,0 l/m 19,1 km/h
S-SW (3 Bft)
- - 3 min 406 W/m 8,1 C 11,4 C 29,0 km/h
SW (5 Bft)
Durchschnitt _ 8,4 C 76 % 1021,9 hPa #0,0 l/m 10,4 km/h (2 Bft) SW - #4:33 h 155 W/m 4,3 C 5,8 C 16,2 km/h (3 Bft)
2019 Cux-Wetter.de -Die Nutzung der Wetterdaten nur mit ausdrcklicher Genehmigung